GFSNE_700_spd_000.txt.gz
Wind_Speed
46 43 43 44 40 46 49 51 53 56 57 57 58 55 44 55 52 49 59 58 54 53 55 54 54 54 54 53 51 49 48 48 47 45 44 43 42 42
42 41 42 44 42 41 48 51 51 53 57 56 55 56 62 52 48 48 56 60 61 55 56 55 55 55 55 54 52 50 49 48 46 45 43 44 44 44
45 45 44 45 48 45 44 47 48 50 55 58 56 57 56 65 64 39 56 43 59 59 54 56 57 58 56 53 52 52 53 48 47 46 45 45 45 43
46 46 47 47 50 52 48 49 51 50 53 58 57 58 57 49 47 54 51 44 53 59 59 56 61 60 58 54 52 52 54 49 48 47 46 42 41 41
49 49 48 47 52 54 53 50 51 52 50 55 58 57 57 55 50 50 67 55 46 52 56 60 68 61 58 54 51 50 52 50 49 48 44 44 45 45
51 49 48 48 50 53 49 49 51 52 49 50 51 56 54 56 52 48 50 63 47 48 36 44 56 67 61 58 56 54 53 51 49 46 44 39 37 38
49 48 47 48 49 50 52 50 49 52 50 44 45 49 52 54 55 52 45 42 53 39 45 49 45 60 62 59 58 57 53 52 48 38 35 33 30 34
45 43 43 44 46 48 52 52 50 54 54 50 44 43 46 50 54 54 50 43 47 59 40 49 52 44 51 56 52 54 54 48 50 39 36 30 28 29
38 36 36 36 37 41 47 51 54 54 58 56 50 39 43 37 49 53 52 46 45 42 58 42 48 46 46 54 48 57 57 49 50 46 39 36 30 29
37 37 37 38 38 38 39 42 49 52 56 58 55 50 38 34 37 48 49 46 45 42 48 42 42 48 54 53 54 58 52 53 44 37 39 31 33 33
38 38 37 37 37 38 38 39 42 47 50 54 55 52 48 44 42 41 47 47 48 45 43 45 54 46 51 62 57 65 48 55 48 42 42 35 37 37
37 35 32 30 28 31 37 38 39 40 44 48 48 49 48 47 48 43 43 43 46 49 46 48 44 46 54 68 55 54 52 54 46 50 39 41 40 38
33 32 31 31 31 29 30 37 37 35 39 43 47 48 46 46 46 43 43 40 43 48 48 47 48 50 54 53 58 63 52 51 47 51 52 50 45 40
34 33 30 29 30 30 31 33 32 36 38 38 40 43 43 45 47 44 42 39 39 42 45 45 44 45 48 56 47 48 49 50 46 46 52 56 44 41
24 24 24 25 27 27 28 32 30 35 38 39 30 35 37 40 45 44 42 40 36 33 39 41 44 38 40 40 44 47 47 46 40 51 50 49 41 36
14 14 14 15 16 12 12 23 29 33 35 35 35 23 25 36 41 41 41 40 36 35 37 34 35 39 41 33 36 38 38 42 50 50 40 39 39 32
7 5 6 9 6 3 10 17 24 28 31 31 30 33 31 33 36 38 39 40 42 40 35 45 30 33 42 37 38 37 38 41 41 39 38 37 31 28
5 4 4 4 4 4 8 14 21 25 26 29 32 31 30 33 35 36 36 37 40 40 38 41 36 37 39 37 38 39 37 36 37 38 33 28 25 30
14 10 7 5 1 5 11 15 17 21 23 24 23 24 26 30 33 36 37 38 40 42 43 36 37 36 35 36 40 39 36 39 33 27 22 28 30 31
22 21 20 18 12 5 9 13 15 16 18 18 20 22 25 26 28 33 36 37 36 40 38 38 37 36 37 35 36 35 34 27 23 23 27 26 26 28
25 26 26 24 21 20 16 13 14 17 19 20 20 20 22 23 31 30 33 31 33 34 35 35 35 32 30 32 33 26 20 21 23 23 23 25 28 30
28 30 33 33 31 29 25 23 25 26 26 24 21 21 19 16 15 17 22 27 29 32 31 33 34 33 30 27 22 21 22 24 27 24 26 28 29 30
25 27 28 30 30 29 29 28 27 26 26 26 27 28 25 24 24 25 27 29 31 32 29 24 20 18 18 21 24 25 25 24 25 27 29 29 29 31

GFSNE_700_spd_003.txt.gz
Wind_Speed
47 46 43 45 46 45 46 48 47 50 57 58 57 51 54 57 56 52 53 50 62 57 65 63 61 61 58 58 56 56 57 57 56 55 53 52 51 47
42 42 41 41 41 41 46 49 53 54 59 55 56 52 38 55 60 62 51 55 55 59 66 64 65 65 62 61 56 56 54 56 57 57 56 55 51 48
40 41 41 41 41 42 41 45 51 52 50 55 47 51 47 48 54 61 71 53 61 59 63 65 66 68 64 65 63 60 56 61 59 57 57 54 51 49
44 44 44 43 43 43 45 48 50 52 52 49 48 46 40 43 52 56 58 62 60 54 61 57 68 68 68 68 67 66 66 56 53 58 53 53 50 49
47 47 47 45 45 44 45 49 51 52 52 52 54 51 45 41 40 53 58 62 67 57 46 63 60 70 70 70 68 67 68 70 67 60 55 51 52 49
52 53 51 49 48 47 48 48 52 54 52 53 53 51 48 43 42 47 52 56 59 58 62 53 64 67 71 69 69 70 68 68 66 61 58 53 52 53
53 50 48 46 44 43 45 49 51 47 50 49 51 52 48 42 41 43 46 49 52 49 49 57 47 72 55 72 70 70 68 67 63 59 55 57 56 52
48 44 41 41 41 40 41 44 47 53 54 49 47 49 49 45 41 40 42 42 44 51 48 51 62 42 52 60 73 69 66 65 61 58 57 58 54 57
42 39 36 34 35 36 37 38 41 47 52 54 56 49 46 43 38 35 40 38 40 44 41 39 52 40 31 50 62 68 68 68 62 60 58 57 60 55
39 38 38 36 36 37 38 39 40 40 42 50 56 56 50 44 39 36 37 39 36 39 38 38 40 59 57 41 48 57 66 65 59 53 57 57 48 44
39 38 38 38 37 36 38 40 41 41 39 41 45 54 55 52 45 40 42 39 38 36 39 38 39 47 41 39 47 50 54 55 61 61 53 57 51 39
38 36 32 30 27 27 31 34 38 39 37 39 39 43 51 54 47 45 42 42 40 35 36 38 38 37 44 47 50 47 53 60 55 55 53 51 45 40
37 39 37 33 31 30 31 33 34 30 32 34 36 34 42 46 51 49 46 43 33 32 34 39 40 39 38 40 51 38 55 62 62 57 51 48 50 40
31 28 26 28 30 31 32 32 33 34 30 32 31 35 34 38 42 46 48 46 43 37 32 35 38 38 37 32 37 37 44 58 60 56 56 50 52 42
24 22 19 20 23 26 28 32 33 34 33 33 29 27 26 32 36 41 49 48 44 39 36 34 36 37 36 37 40 35 37 42 49 51 47 50 50 45
18 18 17 18 20 21 21 19 22 28 30 31 29 22 21 22 30 36 40 41 39 37 36 34 29 32 34 35 36 33 35 39 41 43 45 46 46 48
14 15 15 16 17 14 8 6 9 18 23 24 25 27 23 22 23 31 35 42 42 42 38 30 27 27 31 34 29 34 28 31 36 34 36 32 35 40
15 13 14 14 12 9 3 2 6 12 16 20 21 25 26 24 23 27 31 38 42 42 40 36 31 27 28 29 35 32 34 29 31 31 32 28 29 32
19 19 19 13 6 3 1 4 11 14 15 21 21 20 23 25 23 26 28 33 35 39 39 40 29 28 30 26 27 30 34 32 31 29 26 27 30 34
21 23 24 24 15 2 4 7 8 11 16 18 25 28 24 23 24 26 29 28 31 33 39 40 39 33 28 32 28 28 32 30 30 27 26 28 32 33
24 26 27 27 25 16 3 6 8 10 12 15 16 16 17 18 19 22 28 31 33 32 32 34 36 32 33 29 30 29 29 28 30 28 27 31 29 25
23 25 26 27 27 24 19 10 8 9 10 11 15 16 18 19 22 23 22 22 27 29 29 24 28 32 30 28 30 29 27 26 26 26 24 23 22 23
20 22 24 24 25 24 24 21 18 15 14 14 14 14 12 13 17 20 19 21 21 24 22 24 27 30 29 25 25 28 29 26 22 22 23 25 25 25

GFSNE_700_spd_006.txt.gz
Wind_Speed
46 44 43 42 42 42 42 44 45 52 53 51 52 51 50 51 51 49 57 60 51 48 58 60 70 54 53 62 61 59 57 58 59 58 57 56 54 52
43 43 42 41 41 42 42 44 45 46 54 52 54 54 54 49 50 45 47 59 61 63 58 63 60 66 71 75 66 63 60 59 60 60 59 59 57 55
40 39 40 39 41 42 42 45 46 46 51 58 54 56 55 55 49 54 47 48 57 61 56 60 68 60 58 67 70 65 61 57 58 59 60 61 60 58
40 40 40 40 42 42 42 43 46 49 52 55 51 52 53 54 50 40 54 53 50 59 66 65 64 63 67 64 63 72 67 63 59 62 57 61 62 61
42 43 44 44 44 43 43 44 44 46 49 54 54 51 50 52 56 53 45 55 52 53 59 64 59 68 66 71 49 59 67 66 66 64 65 64 62 61
45 46 47 47 48 48 46 47 47 48 49 52 54 50 51 51 53 54 49 44 54 48 57 58 56 66 65 57 67 60 68 70 71 68 65 64 60 61
46 48 50 50 50 48 47 46 46 49 51 54 52 53 53 54 54 52 51 44 41 49 48 48 53 58 60 62 58 65 57 71 72 73 65 55 56 61
49 49 47 44 41 39 39 40 41 44 48 52 56 58 57 56 52 48 47 44 44 41 43 42 44 48 53 66 52 59 59 64 71 71 74 61 59 55
45 41 39 36 35 34 34 35 36 37 40 43 51 57 59 53 49 45 45 46 45 45 40 37 40 44 46 50 58 52 51 66 70 68 69 69 62 60
36 36 37 36 35 35 36 37 38 37 38 39 43 46 52 57 52 48 46 44 45 41 37 38 36 38 41 47 46 50 47 56 71 64 66 66 62 60
35 36 36 36 33 30 32 35 38 40 39 39 40 41 42 48 54 54 51 45 44 44 29 30 32 35 35 38 40 46 39 57 77 65 65 65 62 58
37 37 35 34 32 30 30 30 34 33 33 36 39 40 40 42 44 56 56 50 43 46 37 26 27 32 31 29 30 41 42 29 46 54 54 62 59 59
36 33 30 27 27 27 28 32 31 28 30 32 32 35 39 40 40 45 59 55 47 45 41 36 32 31 32 33 29 27 46 32 36 52 55 57 61 61
32 27 24 21 20 19 22 25 27 29 31 33 34 32 32 34 31 35 46 56 48 35 38 32 29 30 32 29 28 32 26 28 30 31 53 62 55 62
22 19 18 18 17 17 20 22 24 27 30 34 35 32 27 26 17 24 29 41 50 39 30 28 22 21 28 31 31 28 31 29 28 28 49 55 57 59
19 17 18 17 16 17 18 17 19 23 23 24 29 27 22 24 20 23 27 36 48 49 32 35 35 27 23 27 29 31 23 30 25 25 39 50 49 48
24 22 19 17 14 13 13 11 7 6 9 13 15 17 18 16 18 18 29 30 40 43 46 40 38 28 22 21 24 26 27 28 27 20 26 46 46 41
23 22 22 16 8 8 9 7 5 4 4 3 7 18 16 12 16 17 19 31 34 37 42 42 32 24 24 21 25 27 24 25 30 32 30 30 34 36
23 24 24 22 10 6 5 5 6 4 4 6 10 18 18 17 11 12 15 19 24 34 35 33 34 26 27 26 23 24 30 24 29 24 25 34 34 31
25 27 28 28 20 7 4 3 3 3 4 12 11 10 13 18 20 19 19 20 22 25 33 37 33 30 31 20 18 19 19 24 25 25 23 25 28 32
24 25 28 30 29 21 9 4 0 2 6 10 15 15 15 15 16 18 17 16 19 19 20 22 31 33 31 22 20 20 21 17 19 22 21 24 27 28
21 23 25 26 27 27 24 14 6 1 4 7 10 11 12 13 13 11 12 15 18 20 20 19 16 20 25 27 24 21 20 19 21 22 21 25 25 24
16 19 20 22 23 24 25 23 20 15 10 4 3 8 11 15 16 15 14 13 15 18 19 18 17 17 16 19 21 21 19 21 22 21 22 23 23 26

GFSNE_700_spd_009.txt.gz
Wind_Speed
45 46 45 44 43 41 41 41 44 50 49 44 44 41 41 42 43 44 45 49 56 60 54 52 51 57 53 51 50 56 64 56 51 50 52 53 54 55
44 43 43 42 42 41 40 40 42 46 54 48 47 46 44 43 47 47 45 46 48 53 58 55 57 62 53 55 58 53 63 68 58 54 51 53 55 57
42 40 40 40 41 41 41 41 43 43 51 53 51 50 50 50 48 48 51 46 48 48 52 60 68 60 59 63 60 59 58 64 66 60 57 55 57 59
39 38 39 38 39 41 42 42 43 44 48 56 52 53 54 54 52 50 50 56 48 51 52 53 59 64 66 63 74 69 48 56 56 58 59 61 58 60
40 41 41 40 40 40 42 44 46 46 47 52 55 54 54 53 52 49 47 49 50 49 46 55 58 55 63 71 71 71 66 50 58 73 69 64 61 60
43 42 41 41 42 42 43 43 45 48 49 52 54 54 53 51 51 50 49 47 46 48 47 49 49 58 58 66 69 71 72 61 58 63 65 67 66 60
42 42 43 44 45 47 47 47 47 47 48 50 53 54 54 52 52 48 49 47 46 44 45 43 47 53 61 63 68 73 74 69 68 58 61 67 65 64
45 45 45 45 44 43 42 42 42 43 44 45 48 50 51 51 53 52 47 46 48 46 45 46 43 42 52 59 61 69 77 68 73 72 58 66 66 66
46 43 40 36 35 35 35 36 38 39 41 41 45 47 48 48 51 53 51 43 50 44 44 44 40 40 40 51 59 63 62 67 72 67 69 64 69 74
37 35 36 34 32 33 35 36 36 36 39 40 43 41 42 43 46 48 51 54 55 50 46 47 43 37 36 37 44 51 55 59 57 58 56 60 57 72
34 34 36 36 33 32 36 37 36 36 34 38 41 42 40 40 41 43 49 51 58 53 46 44 42 36 35 32 35 41 47 53 53 57 61 62 60 62
34 35 35 36 34 31 32 33 35 35 31 30 33 37 38 39 39 42 43 49 53 56 49 43 38 37 39 31 30 36 40 47 47 46 61 61 61 60
34 32 29 26 25 25 25 28 29 27 31 33 30 31 32 34 36 39 42 46 48 56 55 45 40 35 33 29 27 29 31 36 38 44 61 56 56 53
29 27 23 20 19 19 20 20 20 22 25 29 31 31 30 30 30 30 37 42 46 47 52 48 39 32 28 32 31 28 27 27 29 39 40 36 51 52
25 24 22 21 20 17 16 18 20 21 23 27 28 30 29 27 25 25 28 32 36 37 43 51 37 25 25 31 29 27 22 21 21 31 34 39 48 53
25 23 23 20 16 14 13 14 16 18 20 19 19 21 22 24 22 18 19 20 22 27 33 46 35 27 24 16 18 21 25 20 22 18 16 24 29 45
25 23 22 18 9 6 6 9 11 7 4 4 7 10 12 15 16 17 15 15 20 16 22 43 39 32 20 23 21 19 19 17 17 23 20 22 22 34
23 25 24 15 6 6 7 8 6 5 5 2 1 6 8 8 10 15 13 12 17 17 20 38 45 39 16 19 19 17 18 19 19 16 13 24 34 43
23 27 28 19 10 8 7 8 8 8 5 6 9 14 8 5 7 6 6 9 14 22 23 32 46 39 33 22 21 21 20 22 24 24 21 22 30 39
22 26 29 26 14 9 8 7 7 6 5 7 6 9 3 6 7 8 8 5 7 12 20 24 32 35 29 25 21 19 21 24 25 25 30 31 29 30
22 23 25 27 25 20 13 10 7 6 3 1 2 4 5 6 7 12 13 12 10 12 14 17 21 24 26 22 21 22 14 20 24 24 26 23 26 31
20 21 22 22 24 24 23 20 15 9 3 4 8 11 11 11 10 9 9 9 9 10 9 12 13 22 25 28 19 22 15 11 15 22 26 29 24 27
17 20 20 19 20 21 22 23 22 21 18 13 6 3 9 10 9 6 4 5 9 13 12 12 14 14 14 17 19 20 18 15 14 17 21 26 26 27

GFSNE_700_spd_012.txt.gz
Wind_Speed
48 45 43 43 43 42 44 45 49 55 53 45 45 43 42 40 41 44 49 52 56 58 58 60 53 49 49 49 55 46 48 46 46 39 59 48 55 51
41 41 42 43 43 43 43 46 48 51 57 50 46 45 43 42 41 42 45 48 50 53 55 56 61 59 56 50 55 50 54 47 44 56 42 60 59 52
41 42 44 42 41 41 42 44 47 48 54 54 50 48 47 46 44 44 46 47 50 49 49 53 56 61 69 61 56 56 63 54 57 42 61 51 51 51
43 42 42 40 40 41 42 44 46 47 50 54 51 49 48 48 48 48 48 48 49 50 52 51 52 56 60 61 62 64 59 60 59 45 51 62 54 55
42 41 40 41 43 43 44 45 46 48 50 53 54 51 50 49 50 50 50 51 50 50 53 53 53 56 57 58 62 64 63 64 65 63 52 47 66 61
41 43 44 43 42 41 42 43 45 47 49 53 55 55 54 52 51 51 50 48 50 48 50 51 53 55 58 57 59 61 68 68 70 69 70 69 54 65
41 40 40 42 43 44 46 46 47 48 48 50 53 55 55 54 53 52 52 49 46 45 46 47 50 50 51 56 59 62 64 63 67 67 66 65 64 63
43 43 43 45 45 44 44 44 45 46 47 48 48 48 48 49 49 49 47 49 49 45 45 44 43 44 43 46 50 55 61 64 65 67 72 70 70 58
44 45 42 36 33 34 34 36 39 40 43 44 45 43 42 41 39 41 41 44 45 41 43 43 42 43 42 43 42 43 48 56 64 67 68 68 68 74
39 33 33 33 32 35 37 38 39 39 40 41 45 44 42 38 36 36 37 39 39 41 42 47 44 43 42 41 40 40 42 46 54 62 67 68 68 69
29 30 33 35 35 35 39 41 41 39 36 38 42 42 41 41 37 36 37 37 40 39 39 45 48 46 45 41 40 40 41 45 48 53 60 65 66 68
27 28 29 32 32 30 31 32 35 31 32 34 36 39 38 37 37 37 37 38 38 38 36 41 47 47 46 41 37 38 40 41 43 46 51 59 65 63
28 28 28 27 26 23 23 25 26 25 26 29 31 34 35 33 32 33 35 38 38 39 37 36 39 41 42 39 35 37 35 32 36 39 48 52 53 55
26 27 27 27 26 24 22 19 19 20 21 23 24 25 29 29 28 28 28 32 36 39 38 36 35 36 39 40 36 33 35 30 30 34 42 47 47 49
23 27 29 29 26 23 19 16 15 17 20 21 21 21 22 25 27 28 27 28 30 33 37 37 36 33 37 41 34 31 33 34 31 31 37 44 46 48
23 29 32 30 20 11 7 8 11 14 17 16 14 15 18 20 22 25 26 23 26 26 27 28 30 32 33 38 24 24 26 26 28 29 27 27 42 46
23 28 28 17 9 6 5 7 7 8 7 7 6 7 11 14 16 19 19 16 15 13 16 18 22 25 30 30 24 24 19 20 24 25 29 15 21 38
22 24 26 14 7 5 5 5 5 5 6 7 9 6 3 2 3 8 13 11 12 11 12 16 11 23 33 28 28 19 17 17 19 21 27 21 18 18
19 21 23 20 11 8 6 6 6 6 6 5 5 8 6 5 3 4 6 4 7 5 8 6 15 18 33 20 22 14 16 17 18 22 24 18 14 15
18 19 21 23 21 13 9 7 5 3 2 4 6 4 2 4 5 4 4 3 5 7 10 16 17 18 28 34 29 23 17 17 20 22 24 16 16 17
17 18 19 21 22 20 17 13 10 7 3 1 2 2 1 1 3 6 8 8 8 8 7 9 13 15 18 33 31 28 21 19 20 24 25 21 20 24
15 16 17 18 18 19 21 21 19 16 11 6 7 8 9 7 5 6 7 9 8 7 10 10 12 16 17 21 25 22 13 16 12 22 23 25 26 22
12 14 15 16 17 17 18 18 18 19 19 17 14 6 4 7 6 3 2 4 8 10 8 11 12 14 17 19 22 25 17 19 13 12 17 20 26 25

GFSNE_700_spd_015.txt.gz
Wind_Speed
43 46 49 50 49 50 50 50 51 58 57 54 55 50 46 46 45 42 45 48 49 53 57 61 61 70 55 42 51 50 46 48 54 41 44 56 46 49
42 43 45 47 49 49 50 50 51 54 61 56 55 51 48 47 45 43 41 44 49 49 51 55 55 54 60 63 46 49 55 49 50 39 47 50 49 51
42 44 46 47 48 49 49 49 49 49 55 56 55 53 51 50 50 46 43 42 47 52 50 51 54 51 53 55 56 50 48 52 52 56 43 43 47 48
45 45 46 45 46 45 45 45 46 46 49 55 55 55 53 51 51 51 48 46 45 50 54 52 54 52 52 53 55 59 57 60 58 53 59 51 43 47
45 44 43 42 43 43 44 46 48 49 51 54 56 56 55 51 49 50 51 50 48 47 49 53 53 53 52 51 54 55 57 63 64 61 53 57 50 45
41 41 42 42 42 42 42 43 45 47 48 50 52 53 54 53 50 48 48 48 48 47 48 49 51 53 52 51 53 55 55 56 62 65 61 55 54 57
40 40 40 41 42 44 46 46 47 49 50 51 52 52 53 53 52 49 49 46 47 45 46 47 47 50 53 52 52 52 53 54 55 58 60 61 60 58
42 41 41 43 43 45 46 46 45 46 47 47 49 49 49 48 47 46 45 44 45 43 44 44 45 47 49 52 52 49 50 53 54 55 57 58 61 61
42 43 44 43 39 36 35 36 38 40 42 43 44 43 42 39 39 40 39 39 39 38 39 42 43 46 45 47 48 47 49 49 51 54 57 58 58 61
41 42 36 32 31 33 35 37 38 39 40 41 43 42 40 40 40 38 36 36 36 36 35 39 37 42 43 43 44 45 46 45 44 46 50 54 58 59
34 29 30 32 32 33 36 37 36 34 33 35 39 40 41 40 39 38 37 35 37 33 30 35 32 36 38 41 42 42 40 40 40 42 44 45 47 53
26 26 29 32 34 33 34 35 34 27 25 25 28 31 33 34 35 36 35 35 34 35 27 31 31 32 37 38 39 38 36 36 38 40 41 42 43 45
26 26 26 28 29 29 30 30 29 25 22 22 22 23 25 28 31 33 33 32 30 33 28 29 29 30 33 34 34 37 35 33 34 36 39 41 42 44
24 25 27 28 29 26 23 22 20 18 20 20 21 21 21 20 22 26 28 29 28 28 27 31 33 31 30 30 30 30 33 32 33 35 36 35 35 40
22 25 29 32 25 15 11 9 9 12 16 19 21 20 17 14 17 23 26 28 26 25 24 26 29 29 28 30 28 27 30 31 33 33 38 36 33 37
18 22 27 26 16 11 9 10 11 11 12 14 13 10 14 16 16 16 23 26 27 25 22 22 23 25 27 29 29 29 29 32 32 30 32 39 40 40
17 21 24 18 12 11 11 10 10 10 9 10 10 8 5 6 10 14 17 21 25 19 15 15 14 19 23 26 29 26 27 26 26 25 27 32 36 39
16 18 21 19 10 8 7 8 9 9 9 9 8 8 9 9 5 3 5 9 9 9 10 12 15 15 18 21 25 27 26 24 23 23 26 31 31 35
14 15 18 20 15 9 8 8 9 8 7 6 3 5 6 6 7 5 2 1 4 2 7 7 12 17 19 21 23 28 17 19 20 21 24 28 27 27
12 12 14 17 18 17 15 13 10 8 6 5 4 3 1 1 1 1 1 2 4 7 5 6 3 8 7 10 13 18 19 15 19 20 21 23 22 23
10 10 12 13 15 17 18 19 18 14 8 6 8 7 5 4 4 6 8 7 8 8 5 8 10 9 11 15 18 24 17 14 16 18 18 21 18 17
8 10 10 12 14 15 16 17 17 17 17 14 7 8 8 9 9 9 9 8 9 10 9 10 12 12 15 17 19 25 23 21 17 14 18 18 17 14
5 7 9 11 12 13 15 15 16 17 17 18 17 10 2 5 7 5 4 5 4 5 6 11 11 16 14 13 14 17 20 18 12 15 14 13 14 16

GFSNE_700_spd_021.txt.gz
Wind_Speed
37 29 27 31 38 39 34 34 37 41 41 41 44 46 49 54 54 56 59 58 54 54 52 52 51 51 52 54 52 49 47 49 50 57 59 48 51 49
38 40 42 41 35 34 35 37 41 44 49 45 46 46 47 49 51 53 56 57 56 52 52 51 52 51 51 53 55 53 51 50 55 54 60 53 40 50
33 33 34 36 37 37 37 39 40 42 47 47 47 49 48 50 51 51 52 54 56 55 51 49 50 52 52 53 55 56 53 51 53 56 52 54 60 38
33 35 37 39 40 40 40 40 42 42 44 47 46 47 47 45 47 47 47 48 50 53 49 47 47 50 52 52 54 56 56 53 51 57 63 59 58 54
34 36 37 38 39 39 40 41 42 44 45 48 47 46 46 45 45 46 47 47 45 46 48 47 47 48 51 52 54 57 56 54 52 54 57 64 61 61
34 35 36 38 39 40 40 41 41 43 44 46 46 45 47 46 47 46 45 46 45 44 45 45 45 46 50 52 54 57 56 55 54 51 55 53 67 63
37 37 37 37 37 38 40 40 40 41 43 46 47 45 46 46 46 44 45 43 43 44 44 43 43 43 46 49 52 55 55 55 55 53 52 47 48 61
38 36 36 36 36 37 37 38 39 40 40 39 38 37 37 36 36 37 38 37 37 38 41 40 42 43 44 47 50 52 54 53 55 54 54 45 46 47
36 36 35 35 34 34 34 33 31 31 34 35 36 35 35 33 35 37 38 37 35 31 34 37 37 40 41 44 47 49 51 52 53 54 52 49 45 47
36 35 35 32 31 29 29 30 31 31 32 33 35 35 34 33 34 33 35 37 37 34 31 34 31 35 36 40 43 46 48 50 51 52 51 49 50 47
35 34 31 28 25 26 28 30 32 34 35 34 34 32 31 30 28 29 31 33 34 32 29 34 31 31 31 35 38 42 46 47 49 51 51 50 49 53
33 28 25 23 24 25 29 33 35 31 28 25 25 27 27 27 24 25 24 28 27 28 24 30 30 28 29 31 33 36 41 44 47 49 50 49 48 49
29 24 20 20 23 24 28 25 19 16 14 14 14 16 18 20 20 21 21 23 25 25 19 26 25 26 29 28 29 32 35 39 43 47 48 47 47 47
25 21 20 21 22 24 19 15 13 13 13 12 12 13 15 17 19 21 21 22 23 23 20 24 22 25 26 27 25 26 30 34 38 39 43 45 45 45
21 19 19 20 20 18 12 11 10 11 11 10 10 11 12 14 13 15 18 19 19 19 19 23 21 20 20 23 24 25 28 30 35 41 42 42 42 43
14 15 16 17 18 10 9 7 9 10 10 10 10 11 11 11 12 9 10 14 13 12 12 15 15 15 16 18 21 26 28 30 34 40 42 42 42 43
11 13 13 14 14 10 7 7 10 10 9 8 6 6 9 11 12 10 8 8 8 8 9 11 12 12 14 15 17 22 27 30 30 36 45 46 44 42
11 11 10 11 11 10 9 9 8 8 7 5 5 5 6 7 9 10 9 9 6 3 1 7 9 10 12 14 15 17 24 30 31 33 36 39 43 44
11 10 9 9 10 12 12 11 10 8 6 6 6 6 5 5 4 6 6 7 5 3 0 4 9 13 14 15 13 12 17 22 30 33 31 33 34 36
10 9 8 9 10 10 10 11 11 12 11 8 6 8 8 7 6 6 6 7 5 4 4 7 8 10 13 13 14 15 16 17 21 26 27 31 29 28
9 9 8 8 9 10 11 11 12 13 15 16 12 6 8 8 7 7 9 9 8 8 10 10 8 8 5 5 7 11 14 15 17 18 19 21 20 23
7 7 8 8 8 9 11 12 12 13 14 16 17 12 4 3 5 5 6 5 7 8 8 9 9 7 10 7 5 4 6 13 16 14 10 8 12 17
7 7 8 8 8 10 10 11 11 12 13 13 14 15 11 6 3 3 5 6 7 5 4 4 3 4 5 7 8 9 9 9 11 13 11 9 12 12

GFSNE_700_spd_024.txt.gz
Wind_Speed
32 34 29 30 29 32 33 34 34 34 34 33 30 32 39 42 44 47 48 50 53 53 56 55 56 54 53 53 50 48 48 49 48 47 48 51 52 51
31 34 34 35 36 38 38 33 33 35 37 34 36 37 38 42 45 48 50 52 55 56 57 59 59 57 57 57 55 52 50 50 51 49 47 49 52 51
30 31 33 34 34 34 34 33 33 34 38 37 38 38 41 44 45 45 47 52 54 57 58 56 55 55 55 56 55 54 53 52 53 53 50 49 52 56
33 35 35 33 34 35 36 38 38 37 37 40 40 40 41 42 44 45 46 48 50 51 54 56 53 52 53 54 55 54 54 53 53 54 53 50 51 56
31 31 31 32 33 34 36 38 40 41 42 43 45 43 43 42 43 44 45 45 46 47 49 51 52 49 50 51 53 54 54 54 54 54 55 54 51 54
32 32 33 34 35 37 39 40 41 41 41 42 42 42 41 40 42 43 44 44 45 45 45 47 49 50 49 49 50 52 54 55 54 54 55 55 54 51
34 34 34 35 36 38 39 38 38 39 40 41 40 40 42 43 43 43 44 43 43 44 45 44 45 46 47 48 48 50 52 54 55 54 55 55 54 53
35 34 34 36 36 36 34 36 36 35 37 39 39 39 37 35 35 36 37 38 38 36 38 40 41 44 44 46 48 49 51 54 56 56 55 56 54 54
34 33 34 34 34 33 33 32 32 32 32 32 34 33 34 34 35 36 36 37 38 36 37 39 37 40 41 43 45 47 48 50 54 56 56 55 55 54
33 33 34 32 30 30 29 28 29 29 30 31 34 34 34 33 33 34 35 37 37 37 36 40 37 37 38 40 41 44 46 49 51 53 55 55 54 54
32 33 32 30 27 26 26 27 27 27 30 33 33 34 35 34 32 32 34 34 33 32 29 33 35 36 36 38 39 40 42 46 49 49 51 53 53 53
32 30 29 26 24 23 24 25 27 26 22 18 18 19 19 22 23 27 28 30 29 29 23 25 26 28 33 34 35 36 38 41 44 45 47 50 52 51
30 27 23 22 20 21 22 24 24 16 14 15 14 14 12 13 14 18 21 23 25 26 20 24 21 22 26 28 27 31 34 37 38 41 44 47 49 49
26 23 20 19 19 20 21 21 14 12 13 11 12 11 12 13 13 16 20 23 24 22 18 23 24 23 22 23 24 27 28 31 32 35 40 43 46 47
22 19 18 17 17 18 18 12 10 10 8 9 9 8 8 8 9 11 12 16 17 17 16 20 25 23 24 23 22 21 24 27 27 29 33 38 42 44
15 13 14 13 15 14 9 8 9 7 7 7 4 3 5 8 10 10 8 8 12 13 14 16 18 20 22 21 20 21 20 18 24 26 29 31 33 39
11 11 10 11 12 12 8 7 6 5 6 5 2 3 5 6 8 10 10 8 7 8 10 9 11 13 16 16 16 17 20 23 24 25 27 35 38 35
9 10 10 9 9 8 7 7 6 6 6 6 6 4 3 3 4 5 6 8 8 7 5 5 7 9 11 12 15 16 17 17 21 27 28 29 35 41
10 10 9 8 7 7 8 10 10 10 9 8 9 7 7 6 5 4 5 6 6 5 4 5 6 8 10 11 13 13 12 16 18 25 28 29 28 36
10 9 8 7 6 7 7 9 10 10 10 11 6 8 10 9 7 7 7 8 6 6 6 7 7 8 11 13 17 13 13 13 16 20 23 27 27 26
9 8 8 8 8 6 8 10 9 9 11 13 12 4 4 8 9 9 8 9 9 10 10 12 12 9 9 6 8 12 14 17 17 17 18 18 21 21
9 8 8 8 7 8 9 9 9 9 10 11 13 11 5 2 5 7 6 5 6 8 8 8 9 9 8 9 7 5 5 9 11 12 12 14 14 18
8 8 8 7 6 7 8 8 9 10 11 11 11 12 11 5 3 4 5 6 6 5 4 4 3 4 6 6 8 8 6 1 9 12 12 12 13 14

GFSNE_700_spd_027.txt.gz
Wind_Speed
34 33 33 32 31 32 32 32 34 36 41 43 46 42 39 28 29 37 43 43 46 46 46 47 49 51 53 51 46 44 43 41 42 44 46 47 47 48
26 25 29 30 32 35 35 34 34 34 35 33 33 34 34 36 36 37 39 40 41 41 42 45 48 50 52 52 54 51 48 47 46 45 45 47 48 48
34 33 33 30 30 31 29 28 27 30 33 33 32 32 34 35 37 40 41 44 46 47 47 48 48 50 52 54 54 55 54 53 52 51 49 49 49 49
31 29 29 28 30 30 30 30 30 27 30 34 32 33 34 35 38 40 42 40 41 43 47 50 52 54 53 55 57 57 58 57 56 54 53 53 52 52
33 32 32 32 32 33 33 34 34 31 32 36 38 35 36 35 37 38 39 40 42 43 44 45 47 50 51 51 56 57 58 58 58 55 54 54 54 55
33 34 34 34 34 35 35 36 35 36 37 38 39 38 33 29 30 32 33 34 37 35 34 39 43 47 50 50 49 52 54 54 54 54 53 53 54 57
35 36 36 38 37 36 38 38 37 38 37 37 38 37 34 38 36 35 38 39 40 40 41 41 41 43 44 46 47 48 51 53 55 56 56 54 55 57
36 36 36 36 35 36 37 36 34 35 36 37 37 38 39 38 37 36 36 37 39 34 36 38 38 41 41 43 44 48 49 52 54 55 56 56 56 57
36 35 35 32 33 34 35 35 34 32 33 32 33 32 33 32 33 35 36 37 38 36 37 38 36 37 37 38 39 41 45 44 46 49 52 55 56 57
35 34 34 32 31 32 32 33 31 30 28 27 29 29 31 33 35 37 37 37 37 36 36 39 34 37 36 39 40 38 40 43 44 44 48 51 54 56
34 33 32 31 29 29 30 29 26 24 24 25 28 28 27 27 28 34 39 38 36 33 30 32 30 32 33 35 38 39 37 38 39 42 44 48 51 52
32 30 29 27 26 26 24 25 24 22 23 24 21 19 20 19 18 22 22 28 30 30 26 27 26 24 26 26 28 32 35 36 37 38 41 43 46 49
30 27 23 21 23 22 22 23 23 22 20 16 15 16 16 16 16 16 17 19 22 24 20 23 25 25 25 24 23 18 17 26 31 34 35 39 41 44
27 24 22 20 19 20 20 21 20 16 12 12 13 13 12 13 14 14 15 18 18 21 18 20 26 24 25 24 23 20 18 18 20 25 30 33 36 38
23 22 20 17 17 16 16 14 9 9 9 10 10 9 7 6 6 9 10 11 13 16 16 17 20 23 24 27 25 23 21 18 21 23 24 27 30 33
18 16 15 14 12 12 10 6 6 7 9 8 7 5 4 4 5 8 8 7 7 8 11 14 16 20 23 26 26 23 19 19 18 21 21 23 24 28
15 13 12 10 10 10 9 6 6 8 8 5 6 6 4 4 3 4 6 8 8 6 7 9 14 14 13 14 18 18 16 16 18 19 18 18 19 20
13 11 10 10 9 8 8 6 3 2 4 6 7 9 8 6 5 5 5 7 7 7 7 5 10 11 9 9 11 13 16 16 13 15 18 21 19 25
12 11 10 9 8 6 5 5 6 6 7 7 7 10 10 10 9 8 8 9 9 8 8 5 6 10 13 13 13 15 13 11 11 14 19 22 21 22
12 10 9 8 8 7 4 6 7 8 9 11 9 6 9 11 11 10 10 9 10 11 10 10 9 9 10 12 15 16 15 15 13 14 16 18 18 21
11 10 9 9 8 6 7 8 8 8 8 10 12 8 5 7 10 10 10 11 11 10 12 13 14 12 10 10 10 9 12 15 16 15 15 16 13 16
11 10 9 8 6 5 6 6 7 8 9 9 10 11 7 5 5 7 9 9 10 11 11 9 9 9 8 9 10 11 9 10 10 12 14 15 13 12
11 10 9 7 4 4 5 7 7 7 7 8 9 9 9 8 5 6 6 8 9 9 8 8 7 5 5 7 9 10 10 8 5 5 8 9 10 11

GFSNE_700_spd_030.txt.gz
Wind_Speed
32 30 29 32 31 30 31 32 32 32 31 29 34 44 50 48 44 50 46 44 45 50 47 46 49 48 47 48 47 47 48 47 45 44 42 43 45 46
30 30 33 34 33 29 27 25 31 32 35 27 32 32 35 39 33 41 41 39 42 43 45 38 39 42 46 49 48 49 48 50 48 46 45 42 41 42
37 33 29 29 27 29 30 29 28 29 32 33 28 29 32 35 34 34 36 39 39 39 41 38 39 40 43 46 47 48 50 49 51 53 49 46 45 42
34 32 35 33 34 30 30 30 29 28 31 35 35 32 31 32 33 34 34 36 39 40 42 43 43 43 45 45 46 48 48 50 50 51 53 55 52 48
32 34 34 33 32 31 31 32 32 32 33 36 38 36 34 33 33 34 36 37 38 41 41 42 44 45 46 47 47 50 51 53 54 54 54 54 55 54
34 35 35 35 35 36 36 34 34 36 36 37 38 37 36 32 29 29 32 31 32 33 36 37 42 46 47 47 49 49 48 52 54 55 55 56 56 57
36 36 36 35 35 36 36 40 39 36 36 36 37 38 37 34 33 32 34 34 36 36 37 36 35 37 40 40 40 43 46 49 54 55 56 57 57 57
36 35 35 34 32 31 32 35 34 32 31 33 35 37 35 34 34 36 38 39 40 36 39 40 39 40 40 41 41 40 43 45 49 51 53 54 55 55
37 36 35 34 33 34 34 34 33 33 34 33 34 31 31 29 31 32 33 35 36 33 33 35 33 34 33 34 35 37 38 41 43 46 49 51 52 53
37 36 35 33 32 32 32 33 33 34 33 31 29 26 28 26 28 30 32 35 37 36 33 37 31 33 31 32 33 34 36 38 40 39 42 45 48 51
33 32 30 30 29 29 30 29 29 28 25 25 26 25 24 25 25 26 27 30 33 36 36 36 29 29 28 29 29 31 34 36 36 37 38 40 42 45
31 30 28 26 25 25 24 25 25 23 24 23 24 23 22 17 18 21 22 24 23 23 21 31 32 30 29 23 21 21 24 26 30 34 35 35 37 40
32 29 24 21 21 23 23 23 24 23 21 21 19 15 15 15 13 16 19 20 20 19 12 17 21 22 26 25 20 18 19 18 19 21 27 30 32 35
29 25 22 20 19 18 19 20 20 19 17 12 11 12 13 13 14 15 16 16 17 18 14 16 20 20 20 21 23 18 19 18 20 22 22 23 26 30
23 22 20 17 16 15 15 15 13 9 8 9 8 9 9 7 6 7 9 11 12 12 12 15 17 19 22 23 22 21 23 20 22 18 19 20 22 24
19 17 16 15 14 13 12 9 7 8 8 8 7 8 7 6 6 4 3 7 9 7 7 9 10 12 15 18 21 23 24 23 19 19 15 18 20 21
17 16 14 13 11 11 10 8 4 5 7 7 8 9 8 6 4 5 6 5 6 7 4 5 7 9 11 12 13 12 13 19 16 16 19 18 15 15
16 15 13 12 11 10 9 9 8 6 5 8 10 11 10 9 8 7 6 8 8 6 5 4 5 8 12 14 12 9 8 7 14 15 12 15 15 12
14 14 13 12 11 10 7 6 6 6 5 5 6 9 12 12 12 10 9 10 10 10 9 7 9 9 10 14 12 13 13 11 9 12 15 12 14 18
14 13 13 12 11 9 5 4 8 7 7 7 7 3 4 11 11 10 10 10 10 12 14 14 12 13 14 13 12 12 12 11 13 12 13 15 17 16
14 13 12 12 10 6 7 8 8 8 8 8 10 9 4 3 5 8 9 10 11 10 11 11 13 13 13 12 12 9 9 9 10 14 16 14 14 17
15 13 12 11 7 3 5 7 8 9 9 9 9 9 9 6 5 5 6 9 10 11 11 11 9 9 8 9 9 11 10 11 12 10 12 15 18 17
15 13 11 9 6 4 4 6 8 8 8 8 8 8 8 7 7 7 6 7 8 9 9 10 9 8 7 7 8 8 9 10 9 7 6 9 12 13

GFSNE_700_spd_033.txt.gz
Wind_Speed
31 33 30 28 28 29 28 26 26 32 37 29 29 30 27 31 40 37 46 57 47 48 49 54 52 52 47 43 47 49 48 48 49 50 49 48 45 42
39 35 37 35 29 27 27 30 29 34 42 41 33 30 25 28 31 33 30 34 44 49 52 55 58 53 50 50 51 52 50 51 53 52 52 50 49 46
41 36 29 29 29 32 33 32 33 31 34 36 35 30 27 27 27 29 31 31 35 44 44 43 42 43 44 47 49 49 51 52 54 53 53 53 52 49
37 33 31 33 33 34 34 34 33 32 35 37 36 34 32 26 27 29 30 30 33 30 32 35 37 40 45 45 45 48 51 53 53 54 55 56 56 54
34 35 37 38 37 36 35 35 34 34 35 36 36 34 33 30 28 30 32 33 33 33 35 38 42 41 44 44 43 48 48 51 53 54 56 58 58 58
35 36 37 38 37 37 37 36 36 36 36 36 38 38 37 34 32 30 32 33 35 36 37 39 40 42 42 43 46 45 46 48 50 51 54 56 58 58
35 35 36 36 36 35 36 35 34 34 33 32 32 34 35 33 32 32 34 31 30 30 31 32 33 35 37 40 42 44 45 47 47 50 53 55 56 56
38 37 36 35 35 35 35 35 35 36 35 34 32 32 30 32 31 33 34 34 34 31 33 35 36 38 38 39 40 42 43 44 44 48 52 54 55 56
40 39 36 34 33 34 34 34 34 34 35 36 37 33 31 27 29 30 30 31 32 30 32 36 35 37 38 39 42 43 42 42 44 45 49 52 54 56
35 35 35 33 31 31 31 31 31 31 32 35 34 30 29 25 26 26 25 28 30 29 30 36 32 36 35 36 38 39 40 39 40 41 42 45 50 53
33 31 31 31 30 28 28 28 27 26 26 27 26 27 25 22 20 22 24 25 25 22 22 33 33 37 35 34 33 33 35 37 38 39 40 41 44 47
32 31 26 24 23 23 25 24 22 21 23 23 22 23 23 21 20 19 16 19 19 20 14 18 21 25 32 33 27 26 28 30 33 35 37 38 39 42
32 27 23 21 19 18 19 21 20 18 17 17 17 17 17 15 12 11 13 18 19 22 14 14 15 16 19 21 23 24 25 25 26 26 26 29 32 38
28 24 22 19 17 16 16 16 16 16 14 10 9 9 10 11 12 15 17 18 18 16 13 17 19 14 15 17 18 17 22 23 23 22 25 24 25 29
23 22 20 19 17 15 14 15 15 11 9 8 8 8 8 8 8 8 8 6 7 9 7 8 11 12 14 15 16 16 20 24 27 23 22 21 22 26
20 18 18 17 16 15 13 12 12 9 8 8 7 7 6 6 7 8 5 2 5 6 4 5 4 3 4 8 11 11 15 23 24 26 25 24 20 21
19 18 16 14 13 13 12 11 9 6 6 7 8 7 7 8 9 7 5 5 4 4 3 4 2 0 3 6 8 7 8 11 18 25 25 22 23 22
18 17 15 14 14 13 11 9 9 9 7 5 8 10 11 12 12 9 7 6 5 5 6 6 6 6 7 5 8 8 9 9 8 11 16 17 16 20
18 16 15 14 13 12 10 8 7 9 9 9 8 7 12 16 15 12 11 10 10 10 11 9 8 10 12 10 10 12 11 11 12 10 11 18 15 11
19 16 14 13 12 10 6 6 8 9 9 9 10 7 5 10 13 13 14 13 11 11 12 11 10 12 14 15 15 13 12 8 11 13 15 14 16 16
19 16 14 13 11 7 4 6 7 8 8 8 8 9 6 4 5 8 10 10 9 10 9 10 11 10 10 12 11 10 12 11 9 9 12 17 15 16
20 17 14 12 9 6 4 4 7 8 9 8 7 7 7 7 4 3 4 5 6 8 10 9 9 8 8 8 7 9 11 11 11 11 12 11 15 17
20 18 15 13 9 7 5 4 4 8 9 8 7 7 6 7 6 5 4 4 4 5 6 7 8 8 9 8 9 9 9 9 9 9 7 6 10 15

GFSNE_700_spd_036.txt.gz
Wind_Speed
35 35 35 34 35 33 34 33 33 41 43 41 39 37 33 33 32 32 31 33 40 52 49 47 51 60 61 58 54 57 55 48 44 42 43 43 42 42
31 33 39 37 31 30 28 30 33 34 40 37 35 35 32 30 28 32 31 30 26 33 39 55 53 55 56 57 55 58 57 53 45 42 44 45 45 45
38 38 37 36 30 34 29 34 36 38 41 41 40 37 35 28 27 28 30 30 27 28 36 46 47 46 54 58 50 53 53 51 48 48 50 52 51 51
35 35 34 36 37 38 38 40 40 38 39 40 39 36 35 32 29 29 28 28 31 30 27 35 46 50 53 55 51 54 55 57 55 53 54 58 57 56
34 36 37 39 40 40 40 40 38 38 39 41 41 40 38 36 33 31 31 30 30 32 31 34 35 38 41 49 54 46 48 48 52 53 52 54 56 57
33 35 37 39 40 40 40 40 38 36 36 38 38 39 38 37 37 35 34 33 32 33 31 33 36 38 38 40 40 42 47 48 49 52 52 55 55 59
35 37 39 40 40 40 41 40 39 38 36 36 37 37 34 31 32 32 34 34 34 33 34 33 35 38 40 45 45 46 49 51 50 51 53 56 56 57
38 40 39 38 38 37 37 36 37 38 37 37 37 38 35 32 30 31 32 32 33 30 31 33 36 38 40 42 44 47 50 49 49 51 52 55 57 56
39 38 38 38 37 37 35 34 33 33 35 36 36 35 34 31 31 28 29 31 31 27 31 33 35 39 39 40 41 43 45 46 48 48 49 53 56 56
38 37 36 36 36 34 33 32 30 30 29 31 33 32 31 28 29 28 27 28 27 22 24 30 27 33 35 38 40 41 43 44 46 47 48 48 50 54
35 35 35 33 29 27 27 26 24 20 23 26 27 27 28 26 25 24 22 24 21 18 21 28 21 29 33 36 37 39 39 39 39 41 43 45 45 49
37 32 27 24 23 23 23 23 22 19 19 20 22 23 24 22 20 20 18 17 14 15 13 19 18 22 23 26 33 39 38 37 37 38 38 40 41 43
36 29 24 22 20 19 18 19 19 17 14 13 14 14 15 16 15 15 14 15 14 16 13 17 17 19 19 14 16 29 38 34 34 35 36 37 39 41
32 25 23 21 20 19 18 16 16 15 13 9 7 8 8 9 10 11 13 15 15 17 15 15 16 17 18 15 10 15 25 29 30 31 31 32 34 35
27 23 22 21 20 18 16 15 15 13 10 9 8 7 8 9 10 10 11 11 9 7 7 7 7 8 10 10 11 13 18 21 25 29 29 29 29 31
22 20 20 20 19 18 16 15 13 11 8 7 7 7 7 7 7 9 8 5 4 3 3 3 1 2 3 4 6 8 14 18 23 27 29 32 30 28
24 20 19 18 17 16 15 13 12 10 8 6 6 7 7 8 9 9 8 9 5 2 2 2 1 3 3 3 3 2 3 7 11 15 25 30 29 27
24 20 19 18 17 16 13 10 8 8 8 6 4 6 8 11 12 11 10 9 8 7 6 6 7 7 9 10 10 9 8 11 14 13 12 17 24 23
25 21 19 17 16 14 12 8 6 9 9 9 9 5 7 12 14 14 13 12 11 11 10 8 8 11 13 14 14 13 11 11 15 15 15 11 14 17
25 21 18 17 15 12 9 7 8 10 10 10 9 8 4 4 9 13 15 15 14 12 11 9 9 9 11 13 15 16 14 13 13 12 15 16 14 15
23 22 19 16 14 11 10 7 7 8 9 9 8 8 8 5 3 4 9 12 13 13 13 11 9 10 9 9 10 11 11 13 14 14 13 13 16 18
22 22 20 17 13 11 9 8 6 8 10 9 8 7 6 5 5 3 3 5 7 9 9 9 9 10 8 7 6 8 10 11 13 14 14 14 13 15
20 20 19 18 14 12 11 9 8 6 6 9 8 7 7 6 4 4 3 2 3 2 4 4 6 8 8 8 8 9 10 11 12 13 11 11 10 11

GFSNE_700_spd_039.txt.gz
Wind_Speed
42 36 34 34 34 39 39 39 36 40 39 36 34 36 36 34 34 40 40 36 34 30 34 52 47 47 48 53 55 61 60 57 54 50 47 44 41 39
39 38 38 38 38 34 33 29 35 34 42 40 39 39 39 38 33 32 36 37 34 31 31 36 50 56 43 44 58 54 56 63 59 53 49 47 46 42
40 38 36 36 37 36 33 37 36 39 44 45 42 40 39 37 35 33 33 36 35 33 33 31 38 45 43 44 47 58 63 61 63 60 55 51 48 46
38 36 35 36 37 39 40 41 41 39 40 42 40 39 40 38 35 34 31 32 35 34 34 32 31 33 37 43 49 49 51 56 62 56 57 56 53 49
33 34 35 36 38 39 41 42 42 41 40 40 39 38 38 38 36 36 36 34 34 33 34 32 33 33 32 36 42 47 54 57 55 55 52 51 53 54
33 34 36 38 40 42 42 42 41 41 40 39 38 38 38 36 36 34 36 36 36 35 33 32 31 37 37 37 37 41 44 52 53 51 47 50 50 52
33 36 39 41 41 41 41 40 40 39 39 37 37 37 37 36 35 33 33 33 34 35 34 33 33 33 36 41 38 40 41 44 48 53 55 57 53 56
37 38 41 41 41 41 40 39 38 37 37 36 35 35 35 34 34 34 33 31 32 29 31 32 36 36 35 38 40 41 41 42 43 42 41 49 51 52
39 41 42 41 42 42 39 36 35 34 34 34 34 33 32 30 31 31 30 30 28 26 30 29 32 35 36 38 39 40 42 43 44 44 45 46 49 52
39 41 40 41 38 34 32 29 27 25 23 26 29 30 28 26 27 27 27 27 26 24 26 29 27 32 34 37 39 40 41 43 45 46 45 48 49 51
38 38 38 36 30 28 28 27 25 22 21 23 25 25 25 24 23 23 22 22 22 19 22 25 20 26 31 32 34 37 39 41 42 44 44 47 49 50
38 37 35 28 25 25 25 24 23 21 18 17 19 21 20 19 19 19 18 18 18 15 16 19 18 22 22 24 28 33 36 37 38 41 43 44 46 47
39 37 29 24 23 23 22 21 21 19 15 15 13 13 13 12 12 13 13 15 16 12 12 15 13 18 21 18 19 24 28 33 37 38 38 39 39 40
37 33 26 23 22 21 20 20 19 16 14 10 7 7 7 7 7 7 8 9 11 8 11 14 14 15 17 18 14 16 17 23 31 35 34 34 34 35
34 30 25 23 21 21 20 19 17 15 11 9 8 8 7 7 7 7 6 7 8 9 9 9 8 8 9 10 12 14 14 15 20 27 31 33 34 35
30 28 24 21 21 21 20 18 15 13 11 8 6 5 6 6 6 6 8 8 6 4 3 2 3 3 4 5 6 8 11 13 16 18 22 25 29 32
29 27 23 21 19 19 18 15 12 12 11 9 5 5 5 6 6 7 10 8 7 4 4 3 3 4 4 5 4 3 4 6 9 10 13 16 21 27
28 28 24 21 18 17 16 14 11 10 11 9 8 5 7 8 8 8 7 8 8 9 7 5 5 6 7 7 7 8 9 10 11 12 13 14 13 18
28 27 24 20 18 16 15 13 11 9 12 10 11 7 4 7 9 10 10 11 11 10 9 9 9 9 10 12 12 12 12 13 13 13 16 15 12 12
26 25 24 21 18 15 13 12 11 11 13 13 11 10 8 4 5 10 13 13 13 13 12 11 10 11 11 11 12 14 14 15 14 14 13 12 14 14
24 24 23 22 19 16 14 12 11 9 10 11 10 10 9 7 3 3 6 10 11 12 12 11 11 11 10 9 9 10 11 12 13 14 14 13 13 13
23 23 22 21 20 18 14 13 12 11 9 10 10 9 8 7 5 4 3 3 5 8 9 9 11 11 9 9 8 8 9 10 11 12 13 13 13 14
21 22 22 21 20 19 17 13 12 12 10 9 8 9 9 7 6 4 3 3 3 3 3 5 6 7 8 10 10 9 9 10 11 12 11 11 10 10

GFSNE_700_spd_042.txt.gz
Wind_Speed
35 36 37 38 38 38 40 46 45 45 43 40 37 33 35 34 33 34 36 39 41 39 37 34 33 39 54 53 60 47 51 52 53 59 53 51 49 47
37 38 41 39 36 34 34 34 36 36 43 42 39 38 37 38 36 35 34 35 38 39 37 38 36 33 41 58 43 53 56 48 43 56 54 52 50 47
37 40 36 34 33 33 34 35 37 38 42 42 40 37 38 37 38 37 33 32 34 36 37 34 35 35 35 46 57 49 42 49 50 49 51 55 51 49
39 35 33 33 32 34 37 38 40 41 43 46 42 40 38 36 36 34 32 33 34 33 34 34 32 32 35 38 40 47 46 44 45 48 51 49 55 52
36 33 33 33 34 36 38 41 42 41 41 42 42 40 38 37 35 34 32 31 33 34 33 31 32 32 32 34 37 47 50 51 45 47 50 53 55 55
33 33 34 35 38 40 41 42 41 40 39 39 38 38 36 33 35 34 33 32 30 32 33 32 30 30 31 34 35 40 44 45 45 45 46 51 55 50
32 34 35 37 39 42 43 42 42 40 39 38 36 34 33 32 32 32 34 32 30 29 29 31 33 32 31 31 37 36 38 38 40 43 44 45 47 44
34 35 37 37 40 40 40 39 37 35 34 33 31 31 31 29 28 30 31 32 29 28 30 27 30 33 32 31 31 35 39 36 37 38 39 43 45 41
36 37 38 40 40 41 38 32 30 28 29 29 30 28 28 26 25 26 27 28 28 25 28 26 26 28 31 32 33 34 34 38 41 39 38 37 39 42
35 37 38 39 39 37 32 30 28 25 23 24 26 26 26 24 22 23 22 24 24 21 25 25 24 26 30 33 34 34 35 35 35 36 37 38 39 39
35 36 38 38 36 30 29 29 27 24 22 21 22 22 21 20 19 20 19 19 18 19 22 24 20 23 29 30 31 33 34 35 35 35 36 38 40 39
34 36 37 36 30 27 27 26 25 23 20 17 16 17 17 15 13 16 16 17 16 18 15 19 17 19 20 22 24 28 30 32 33 34 35 38 39 41
34 36 35 32 26 25 24 24 23 22 19 16 13 8 9 9 8 8 10 12 14 11 12 14 14 15 15 16 18 25 25 27 29 31 33 34 35 37
33 34 34 30 25 23 22 22 21 19 18 15 12 8 7 7 6 6 5 4 5 9 9 8 11 13 15 16 16 21 19 20 22 25 31 34 34 35
32 32 32 29 25 22 21 20 18 16 16 13 9 7 6 5 6 5 2 3 1 6 7 9 10 10 9 11 13 17 18 13 13 15 21 26 29 31
29 30 30 28 25 22 20 19 17 15 14 13 8 5 4 4 4 3 6 3 3 4 5 5 6 4 5 5 7 10 10 11 10 10 10 13 17 22
27 28 28 27 23 20 19 17 15 12 14 13 11 7 4 3 2 2 7 7 7 4 2 3 4 5 4 5 6 5 4 4 5 5 6 8 11 14
26 27 27 27 23 19 17 16 14 11 13 13 13 9 5 5 5 5 5 7 8 7 5 4 3 3 5 6 6 6 6 6 7 7 8 9 11 14
25 26 26 26 24 20 17 15 14 13 12 14 12 11 7 5 8 9 9 9 8 8 7 7 7 7 7 10 11 11 11 10 10 10 10 9 10 15
24 24 25 24 23 22 18 15 14 12 13 14 14 12 11 8 5 6 9 9 10 11 11 9 9 8 9 9 9 11 12 13 13 13 11 12 8 9
24 22 24 23 22 21 20 17 14 13 10 10 12 12 11 10 9 6 4 7 9 10 10 10 9 9 9 8 8 9 9 10 10 11 12 13 13 12
23 22 21 22 22 21 19 18 16 14 13 11 9 10 10 9 8 7 6 3 3 5 7 8 9 9 9 9 8 7 7 7 8 9 10 10 11 12
21 22 21 20 21 21 20 18 16 15 12 11 10 9 8 9 8 7 5 4 3 3 3 4 5 6 7 8 9 9 9 9 10 9 9 9 8 8

GFSNE_700_spd_045.txt.gz
Wind_Speed
34 26 30 34 38 36 34 33 32 36 38 33 37 38 35 36 37 34 34 36 38 39 42 42 40 39 38 38 44 57 60 59 53 64 46 42 50 46
27 29 32 37 36 33 33 33 33 35 43 36 36 37 36 36 37 35 35 35 36 37 40 41 43 42 39 37 35 40 43 58 52 56 57 51 48 45
29 33 36 37 34 34 34 34 36 37 42 41 41 41 41 39 38 36 36 34 33 35 36 38 39 38 38 38 37 34 36 47 51 52 61 53 49 50
32 37 37 35 34 35 35 36 38 38 42 45 41 39 39 38 36 36 35 34 33 34 34 35 35 34 35 34 37 37 41 42 42 61 53 44 45 55
35 39 34 34 35 36 37 38 39 40 41 42 41 40 39 36 35 35 33 33 33 33 33 33 34 32 31 32 33 38 37 48 39 39 44 43 40 36
38 33 34 35 36 36 37 38 40 39 39 40 39 37 35 34 33 32 32 31 32 33 32 32 32 32 30 31 29 33 35 40 38 37 43 41 41 42
30 32 33 33 34 35 38 38 39 39 37 34 33 32 31 29 28 29 30 31 31 32 30 30 30 29 29 31 29 28 33 35 38 39 42 39 39 39
31 32 32 33 34 36 36 36 33 30 30 31 31 30 28 26 24 25 27 28 28 27 28 29 30 27 26 30 30 28 32 36 36 35 38 39 41 39
32 33 33 33 34 36 36 31 27 26 28 29 29 28 27 25 24 22 22 24 24 24 26 28 27 25 25 28 31 31 30 37 36 35 32 34 36 40
32 32 32 32 34 36 33 28 27 26 26 25 25 25 23 22 21 21 21 21 21 21 22 24 23 23 27 28 30 31 30 30 33 36 36 34 34 35
29 30 32 33 34 33 30 27 26 25 24 23 23 21 19 18 16 16 18 19 18 16 19 21 20 22 24 26 27 28 29 29 30 31 32 35 37 36
28 29 31 32 33 31 28 26 26 24 24 21 20 17 13 10 8 8 10 15 16 15 14 19 15 17 18 22 24 25 27 28 29 30 31 32 32 35
29 29 30 31 31 28 25 25 25 24 21 20 17 13 11 7 6 7 8 8 9 11 13 15 11 12 12 14 18 21 23 24 26 27 29 31 32 33
29 29 30 30 30 26 23 22 22 20 18 18 15 11 9 8 8 6 5 6 4 3 9 8 7 8 10 11 14 18 19 19 21 23 26 29 31 32
28 28 29 29 28 25 22 20 19 17 15 15 13 9 5 5 5 5 3 2 2 7 10 5 7 8 10 10 11 15 16 17 16 18 21 24 27 30
26 27 28 28 29 26 21 20 18 15 14 14 13 9 5 4 3 2 4 1 5 4 3 6 6 8 2 6 7 9 11 13 13 10 11 16 20 22
26 25 26 26 26 25 21 18 17 14 14 15 15 11 5 4 3 3 6 6 4 3 1 3 6 7 7 7 6 5 6 7 8 8 9 10 11 12
25 24 24 25 24 23 21 17 16 16 13 13 13 13 8 5 6 5 6 8 8 6 4 4 4 3 4 5 8 7 6 5 6 6 7 7 7 9
23 24 23 23 23 23 22 19 16 14 14 12 12 11 11 8 5 8 9 9 8 8 7 6 5 5 6 8 8 8 8 8 9 9 9 9 8 11
21 23 23 22 22 22 21 20 17 15 14 12 12 11 10 9 7 4 7 10 11 10 9 9 9 8 7 8 9 11 12 12 12 12 12 11 12 8
19 21 22 21 20 21 20 19 18 16 14 12 11 10 11 10 8 8 5 3 7 9 9 9 10 10 9 8 8 7 8 9 10 10 10 10 10 11
17 18 19 20 19 19 19 19 18 17 15 14 13 11 9 9 9 8 7 6 4 2 4 6 8 9 9 9 8 7 7 6 7 9 9 10 11 12
17 17 17 18 18 18 17 17 17 16 15 13 13 11 10 9 7 7 6 5 4 3 2 2 3 5 6 7 7 8 8 8 8 8 9 10 11 11

GFSNE_700_spd_048.txt.gz
Wind_Speed
34 27 27 27 32 32 30 26 28 36 33 28 30 28 29 30 33 38 36 34 36 39 37 43 45 47 45 42 41 43 49 57 60 60 59 54 47 51
25 28 28 31 34 36 30 27 27 31 37 33 33 35 36 35 34 39 39 38 36 37 38 40 41 43 44 44 41 39 39 45 53 59 60 57 51 42
29 30 32 35 38 38 31 33 34 33 34 37 35 36 39 37 34 34 37 33 31 33 36 38 39 40 41 41 41 39 38 35 39 48 59 58 53 54
32 32 35 38 42 36 35 34 34 34 33 36 39 36 37 36 35 37 38 34 30 26 35 39 34 38 38 38 37 36 38 36 30 34 48 55 51 59
32 35 37 39 36 35 36 37 36 38 40 43 43 41 38 34 33 33 33 32 30 30 33 35 35 37 35 35 34 31 33 39 37 35 45 47 52 56
32 33 34 34 35 35 35 36 38 40 41 41 39 36 33 30 29 28 27 25 24 25 30 33 35 34 33 32 32 30 30 34 41 46 38 46 57 55
28 30 32 33 33 33 34 35 37 38 37 33 32 32 32 27 24 23 24 23 24 24 28 30 28 26 26 29 29 29 28 31 37 40 47 38 37 45
27 30 31 33 33 33 33 33 34 32 29 29 29 30 28 26 25 23 25 23 24 20 19 23 25 26 25 22 27 30 28 27 31 37 39 41 34 30
28 30 31 31 32 32 33 33 30 26 27 27 28 28 27 25 24 24 23 23 23 21 21 22 21 25 27 27 28 27 30 28 29 32 34 33 33 31
28 29 30 30 31 32 33 32 28 25 25 26 27 28 27 24 21 21 22 21 21 23 22 24 21 24 24 26 27 24 28 29 30 33 30 32 33 35
26 28 28 29 30 31 32 30 26 24 25 25 25 25 23 18 14 17 18 19 20 19 16 16 19 19 21 22 23 23 24 28 29 29 36 33 33 34
24 26 28 27 29 31 31 28 25 24 24 22 20 20 18 14 11 9 10 11 13 16 10 14 16 12 15 16 18 21 21 26 29 29 29 32 34 34
24 25 26 27 29 29 28 25 24 24 21 18 18 18 14 12 12 11 10 10 11 11 12 15 14 10 8 7 11 12 14 22 26 28 29 30 31 33
23 24 25 26 28 28 27 23 21 21 19 17 16 15 11 9 9 9 9 8 9 8 9 8 8 8 9 10 11 10 12 13 21 25 26 28 30 32
22 24 24 25 26 26 26 22 20 19 17 16 15 13 9 5 5 6 5 6 9 6 7 6 6 7 9 10 9 12 14 14 17 20 22 24 27 29
20 22 23 23 25 25 26 23 20 19 17 15 15 14 8 6 5 5 5 1 5 2 4 7 8 10 8 5 6 8 11 11 14 16 17 20 24 28
19 21 22 22 23 24 24 24 21 18 17 16 15 14 11 7 6 6 7 7 4 3 2 1 3 9 4 9 5 5 6 6 8 12 12 14 19 23
18 19 20 21 21 22 22 22 21 18 17 16 14 14 13 8 7 8 8 11 10 9 6 6 6 3 3 5 10 9 6 7 8 10 11 11 13 15
17 18 18 19 20 20 21 21 21 19 17 15 14 13 13 11 6 7 10 11 11 10 8 8 8 9 8 6 9 10 9 8 8 8 8 9 10 11
17 17 17 18 19 19 19 20 20 19 18 16 14 12 12 11 9 6 5 10 12 12 11 11 11 10 10 10 10 11 11 11 11 11 11 10 11 9
18 18 17 17 18 18 18 18 18 18 17 16 14 13 11 11 9 7 6 3 6 10 12 13 12 12 11 9 9 10 10 12 13 13 13 13 13 14
19 19 18 17 17 17 17 17 17 17 17 16 15 13 11 10 9 8 5 4 2 2 6 9 11 11 11 10 11 9 9 9 10 11 12 13 14 15
21 20 19 18 17 17 16 16 16 16 16 16 15 14 12 10 9 7 6 5 3 1 1 2 6 7 8 10 10 10 8 8 9 10 10 11 11 10

GFSNE_700_spd_051.txt.gz
Wind_Speed
35 35 34 33 31 34 33 33 30 39 38 30 32 29 32 33 36 39 43 47 48 46 37 39 41 42 43 43 46 45 46 49 51 54 56 59 59 59
35 36 36 31 33 34 36 35 32 32 40 34 34 33 36 36 36 37 39 41 43 42 36 36 40 41 43 42 41 42 43 45 46 49 53 56 58 60
37 34 33 34 35 36 39 36 31 30 35 38 37 35 35 37 39 39 39 41 39 38 33 31 28 39 41 41 41 39 38 40 42 43 46 53 55 59
29 27 29 32 36 38 33 28 31 32 35 39 38 40 39 38 40 40 39 34 36 33 29 30 35 38 38 39 40 38 35 35 39 40 38 43 51 55
26 28 33 33 36 35 35 37 37 38 38 39 41 41 44 39 37 33 32 30 30 29 26 25 30 34 37 36 35 35 33 31 33 38 37 35 39 47
27 30 31 30 33 35 37 37 38 39 39 41 42 41 38 34 31 30 28 26 26 27 26 26 31 34 36 32 30 32 30 30 30 34 37 36 35 40
28 27 28 31 33 35 34 34 34 37 38 39 38 34 32 30 27 26 27 27 24 26 27 25 26 25 23 22 24 28 27 29 29 32 37 43 38 37
26 26 28 31 34 34 34 33 32 35 35 35 32 31 30 28 25 24 26 27 27 23 23 22 21 22 22 18 24 23 27 28 28 30 35 44 40 38
24 26 28 30 32 31 32 34 34 34 32 30 30 29 29 27 29 30 27 26 26 22 22 24 21 22 20 24 27 30 28 25 28 29 32 36 38 31
23 26 27 28 31 29 31 32 33 31 28 27 28 29 29 28 27 24 20 20 21 21 21 22 20 22 24 25 24 26 21 23 27 29 29 32 33 28
22 24 26 26 28 29 31 32 31 27 25 25 26 25 23 23 21 16 11 15 18 18 18 21 16 15 16 17 17 18 19 21 24 29 30 29 29 28
21 23 26 24 26 28 30 31 29 25 24 23 21 20 21 20 15 13 12 16 18 15 11 16 13 12 11 7 9 12 13 18 21 27 30 28 30 29
21 22 23 25 26 27 28 29 27 24 22 21 20 19 18 16 14 14 14 16 15 13 11 14 15 12 12 10 3 4 9 14 18 22 28 28 28 32
21 21 22 23 24 25 26 27 25 22 22 20 19 19 18 14 10 9 10 11 12 13 12 13 11 13 12 9 8 6 6 10 12 16 24 28 28 30
21 21 21 22 22 24 25 25 24 21 20 20 19 18 18 13 9 8 7 6 8 11 8 4 3 5 9 10 8 6 9 10 14 17 20 24 26 28
21 20 20 21 21 22 24 25 25 23 21 19 18 17 18 14 11 9 7 6 4 8 3 6 8 7 8 9 10 9 9 10 12 14 16 20 23 26
21 20 20 20 21 22 22 23 24 23 22 20 18 17 17 17 11 10 9 10 7 5 2 2 4 3 5 8 7 7 5 6 7 10 13 16 19 23
22 22 20 20 20 20 21 22 22 23 22 20 18 17 16 16 14 10 11 11 14 12 11 8 5 3 4 6 10 5 7 5 10 11 11 9 10 19
22 21 20 20 19 19 20 20 21 21 21 20 19 17 15 14 15 12 10 13 13 14 13 10 9 9 7 10 7 10 9 9 8 6 7 9 11 11
22 22 21 20 19 19 19 19 19 20 20 20 19 17 16 13 13 12 11 9 12 13 12 13 14 12 12 12 8 10 12 11 9 8 7 8 9 10
22 22 21 20 20 19 18 18 19 19 19 19 18 17 15 14 12 12 11 10 7 10 12 14 12 13 12 10 8 10 12 13 13 12 11 10 10 10
21 22 23 22 21 20 19 18 18 18 17 17 17 17 15 13 12 10 10 9 8 5 6 9 11 11 11 9 6 11 9 9 10 12 13 13 13 13
21 22 23 22 22 21 19 19 19 18 17 17 16 16 15 13 12 10 9 8 7 5 4 4 7 9 11 11 11 10 8 7 7 8 9 11 11 12

GFSNE_700_spd_054.txt.gz
Wind_Speed
31 36 37 37 35 33 35 33 36 41 45 45 42 38 37 37 38 39 42 45 48 49 50 50 46 42 41 44 44 40 39 42 46 49 50 52 56 58
32 36 39 37 38 38 39 37 37 42 46 39 39 38 37 39 41 42 43 45 43 43 43 43 41 38 37 39 42 42 38 37 40 45 47 49 52 57
31 32 32 32 33 35 35 38 42 37 37 41 42 41 40 43 45 42 40 42 42 41 40 39 38 38 34 34 37 40 40 36 36 39 42 45 48 52
31 31 31 31 29 32 39 38 36 37 39 45 44 43 43 44 46 44 40 36 34 33 32 32 30 33 31 33 37 39 34 35 33 34 37 41 45 47
31 30 31 29 32 34 31 34 36 39 40 41 43 41 42 42 43 39 33 32 30 28 27 28 25 25 24 26 27 31 32 30 31 31 33 36 40 41
28 27 28 32 30 29 32 34 37 37 38 39 40 40 40 38 35 33 32 28 28 26 25 25 25 27 28 28 31 32 28 25 27 29 30 33 36 38
28 28 30 29 29 30 32 33 34 35 35 36 37 38 37 33 31 30 31 29 25 23 25 24 24 23 21 25 24 22 23 23 26 27 29 30 33 36
28 30 26 26 29 31 31 33 33 35 35 37 37 35 32 31 30 30 31 32 32 25 27 25 22 24 21 21 21 25 21 24 23 26 28 29 31 35
28 26 24 25 27 28 30 31 32 33 35 36 34 30 30 30 31 30 28 29 26 19 22 25 21 24 24 24 23 24 25 24 22 25 27 29 29 33
24 23 24 26 26 28 29 29 31 32 32 30 28 27 28 27 26 27 25 20 11 11 17 22 17 19 19 21 22 22 26 25 27 25 27 29 27 29
22 22 24 24 24 27 28 29 29 30 30 27 26 25 24 22 23 23 16 15 11 12 15 20 15 18 15 13 13 17 17 17 21 22 25 27 26 26
20 22 23 23 24 26 27 29 29 30 29 24 22 21 21 20 20 17 16 16 17 16 12 18 15 17 14 11 9 10 11 12 17 19 21 25 24 23
21 21 23 22 23 25 27 28 29 29 27 25 23 21 20 20 17 14 13 14 15 14 12 17 16 16 17 15 11 2 4 7 11 15 17 22 23 22
22 21 21 22 23 23 25 26 27 27 27 24 22 21 20 20 15 11 10 11 13 12 14 17 18 15 13 15 10 6 3 3 6 9 15 20 23 24
23 22 21 22 22 22 23 24 23 24 25 25 22 21 20 19 16 11 10 11 8 12 9 5 5 5 7 9 9 6 1 5 7 8 11 15 22 24
21 22 21 21 22 22 21 22 24 24 24 24 23 21 19 18 18 12 10 11 9 1 5 6 8 9 7 7 9 8 3 5 7 9 13 16 19 23
24 22 21 21 21 21 21 21 22 22 23 23 23 21 19 17 16 15 10 11 14 12 7 6 5 5 2 7 8 7 7 7 6 5 8 12 15 19
26 24 22 22 21 21 20 20 20 21 21 23 23 22 20 18 15 15 13 11 14 17 14 12 10 4 2 5 7 7 8 2 4 2 6 5 9 14
25 24 23 22 22 20 20 19 19 20 20 21 22 21 20 18 16 14 14 12 11 13 15 14 13 10 2 7 5 6 7 6 6 9 6 10 12 10
24 23 22 22 21 20 20 19 19 19 20 20 20 21 19 18 16 14 13 13 10 10 12 12 11 10 11 7 5 6 9 10 8 5 3 5 7 8
23 22 20 21 21 20 19 19 18 18 18 19 19 19 19 17 15 15 13 12 11 9 8 11 11 11 13 11 9 7 8 10 12 10 8 7 7 8
20 21 20 21 21 20 20 19 18 18 18 17 18 17 17 17 15 14 13 11 10 9 7 5 8 10 11 10 8 5 6 8 9 10 11 11 10 9
21 20 19 20 20 20 19 20 19 18 18 18 17 17 16 15 15 13 12 11 9 8 6 4 4 7 10 9 10 5 8 7 5 6 8 10 11 10

GFSNE_700_spd_060.txt.gz
Wind_Speed
42 41 40 40 40 40 38 36 37 39 36 37 36 38 38 40 38 39 41 42 42 42 42 42 44 47 47 46 44 42 43 42 42 40 41 45 45 47
43 42 41 40 39 38 38 37 37 37 36 36 39 39 41 40 40 42 44 44 42 41 41 40 41 45 46 46 44 42 41 42 41 41 38 40 46 47
39 39 39 38 37 37 37 35 31 38 34 37 39 39 39 41 42 41 41 41 41 40 40 39 40 41 41 40 38 37 36 36 36 38 38 37 41 46
38 37 36 35 34 34 33 31 29 30 32 33 35 36 37 39 41 41 38 38 39 38 38 36 33 33 34 35 35 35 35 36 36 36 36 37 39 43
36 36 35 32 31 31 29 27 28 27 30 32 34 35 37 37 39 38 37 35 34 34 32 31 30 31 33 35 34 34 35 35 35 37 37 37 36 39
35 35 34 31 31 32 29 28 25 27 29 30 32 34 35 34 36 36 32 30 27 27 29 31 32 32 32 32 31 31 31 33 34 35 35 35 34 35
36 35 33 34 39 37 30 25 25 28 28 30 31 34 34 34 34 31 30 28 26 25 29 26 29 29 29 32 32 31 30 29 29 29 32 34 33 34
34 32 29 34 38 35 26 24 26 27 27 29 31 33 33 34 32 29 29 28 27 21 27 20 23 21 21 22 23 26 27 28 27 28 28 27 26 31
33 31 30 31 30 25 24 24 25 26 28 29 30 32 32 32 30 28 26 26 25 23 26 18 17 16 18 19 20 21 22 25 28 28 32 28 27 29
32 31 30 29 26 24 24 23 23 25 26 27 29 30 30 30 28 28 26 25 23 18 21 17 16 18 18 17 19 21 22 24 26 27 30 30 28 28
31 30 29 28 26 24 23 23 22 23 24 26 28 29 30 29 28 28 26 27 20 15 14 18 17 21 19 17 17 20 20 22 24 25 26 29 31 28
29 28 28 27 26 24 23 22 22 22 22 23 25 27 28 27 26 26 26 25 18 10 8 13 13 20 24 17 16 19 22 20 25 24 24 27 29 30
28 27 28 27 25 23 23 22 22 21 21 22 23 25 25 26 25 24 24 25 16 8 7 12 16 17 18 20 13 15 18 16 16 12 15 18 19 21
28 27 26 26 24 24 23 23 21 20 20 21 23 23 23 23 23 22 21 22 18 11 7 9 13 18 20 17 13 11 14 14 4 3 5 9 14 16
28 27 26 25 25 24 24 23 21 21 20 20 21 21 21 22 23 21 19 20 17 15 13 12 11 12 18 18 12 12 12 2 3 2 1 4 11 14
29 27 26 24 24 24 25 24 22 21 20 20 20 20 20 21 22 22 19 17 16 15 16 13 11 12 14 15 13 10 9 8 8 5 5 6 6 10
30 28 26 24 22 23 24 23 22 21 20 20 19 19 19 20 20 22 20 17 17 14 16 18 17 16 15 13 12 10 9 10 6 5 5 4 8 10
29 26 25 24 23 23 23 22 21 20 19 19 18 18 18 19 19 20 19 17 16 15 14 16 19 19 18 14 13 6 8 3 5 4 7 3 1 6
28 25 24 23 24 23 22 21 19 20 19 19 17 17 17 17 18 18 18 16 14 15 14 12 12 12 14 9 2 3 7 3 3 4 5 3 5 1
25 24 23 22 23 22 21 20 19 18 19 19 17 16 16 16 17 17 17 15 13 12 13 11 8 8 9 9 8 7 7 8 9 6 3 1 6 8
24 23 22 21 20 20 19 19 18 18 19 18 16 15 15 16 16 16 15 15 13 10 10 9 5 7 9 9 9 9 9 9 8 7 6 4 4 8
21 21 22 21 20 19 18 17 17 17 17 17 16 15 14 15 15 14 13 13 12 10 8 8 5 5 5 6 7 8 8 7 7 6 6 7 4 3
22 21 22 21 20 18 16 16 16 16 16 16 16 16 14 14 14 12 11 11 11 9 7 5 5 4 5 5 5 7 7 6 6 4 5 9 9 7

GFSNE_700_spd_066.txt.gz
Wind_Speed
36 38 41 43 44 45 44 43 41 42 44 40 38 36 34 33 34 37 36 37 38 37 39 40 42 44 46 47 48 47 46 45 44 43 43 43 43 43
37 40 42 44 45 45 44 42 40 39 39 37 35 35 35 35 35 35 33 33 34 37 39 41 42 44 45 46 44 44 43 42 41 39 39 41 41 41
40 42 42 45 46 46 45 43 40 38 38 33 32 34 36 35 32 31 32 33 35 38 41 43 42 41 41 41 41 41 40 39 38 36 36 37 37 36
40 41 43 45 45 45 44 42 40 38 36 35 35 36 32 29 30 31 31 33 36 38 40 40 38 36 35 35 35 35 35 34 32 31 31 32 34 34
41 43 44 46 46 44 42 39 38 37 35 36 39 32 29 28 29 29 31 33 35 37 37 36 34 31 31 31 31 31 32 32 33 32 33 34 34 36
42 44 46 46 44 42 40 37 36 35 35 38 34 29 29 28 29 30 30 32 33 33 33 31 30 31 30 30 30 29 29 30 31 31 32 33 35 36
44 46 46 45 43 41 38 35 35 33 34 33 30 29 28 28 29 29 31 32 31 31 30 27 30 29 29 28 28 26 25 26 25 25 27 31 34 35
46 46 46 45 43 39 36 35 33 32 31 31 29 28 27 28 29 29 31 33 33 31 28 23 28 26 27 24 22 21 21 22 23 23 23 25 28 31
47 47 47 45 42 37 35 34 32 31 31 30 28 27 27 27 27 28 29 31 30 29 30 25 25 20 20 17 18 20 23 22 22 22 23 23 25 28
47 47 47 45 39 36 35 33 32 31 30 30 28 26 27 27 28 29 29 30 29 28 28 30 23 18 14 13 16 20 23 22 23 23 22 21 23 25
47 46 45 41 36 35 34 32 32 30 30 29 27 26 27 27 28 28 28 29 29 26 23 30 21 17 12 12 13 19 21 21 22 22 23 23 24 26
48 44 42 39 36 34 34 33 32 29 30 27 26 26 27 27 27 27 27 29 30 28 25 26 20 21 12 9 11 16 18 17 17 17 23 28 28 29
45 40 38 37 36 34 33 32 31 30 28 27 26 26 26 27 26 26 26 27 28 29 26 27 21 17 19 14 10 13 15 13 10 13 14 16 17 19
42 37 34 34 34 34 33 32 32 31 29 28 27 26 26 26 25 25 25 25 26 28 25 24 23 19 19 15 14 12 12 13 12 12 14 13 15 15
39 37 34 32 31 33 32 31 33 32 29 29 26 25 26 25 23 24 23 24 24 26 27 25 22 19 18 15 13 14 16 7 12 11 9 14 16 16
41 36 35 33 31 30 30 30 29 30 30 29 26 25 25 24 22 24 22 22 22 21 24 25 24 21 16 16 16 14 16 14 8 9 12 13 18 17
44 39 35 29 30 29 28 28 27 27 29 28 26 25 24 24 21 22 21 21 22 21 19 19 23 22 16 16 17 17 17 12 12 9 11 14 18 17
36 33 29 29 29 27 27 26 26 25 24 26 25 24 24 22 20 21 21 20 21 20 20 19 18 19 16 11 13 11 11 10 9 8 8 13 12 13
27 27 28 30 27 25 25 24 25 24 23 25 22 23 23 21 19 19 19 19 19 18 19 19 18 17 12 9 7 7 6 6 6 8 9 10 7 7
27 30 32 28 25 29 26 25 24 24 22 23 20 21 21 20 18 18 18 18 17 16 16 17 15 13 8 7 7 10 8 8 8 8 9 9 8 7
27 27 23 22 23 23 25 22 24 24 22 21 19 20 20 19 18 18 17 17 15 14 14 14 12 10 6 6 6 8 9 8 9 8 9 8 6 7
22 22 24 23 22 22 21 22 17 20 21 20 19 18 19 18 18 17 16 15 13 12 12 12 11 9 6 5 4 6 7 8 9 10 8 5 4 3
23 21 22 22 18 21 20 22 22 21 19 18 17 17 17 16 17 16 15 14 12 11 10 10 10 8 7 8 7 4 4 5 6 6 6 4 3 3

GFSNE_700_spd_069.txt.gz
Wind_Speed
36 32 33 35 36 38 40 42 44 45 45 45 43 42 39 36 34 34 34 34 34 35 33 34 35 37 39 41 43 45 45 46 45 45 45 46 45 44
33 33 35 38 38 40 42 44 43 43 44 41 40 38 38 36 37 36 33 31 29 30 31 32 34 37 40 42 44 44 44 44 43 41 40 40 41 40
34 37 37 39 40 42 44 45 44 43 42 40 39 36 36 36 38 33 29 29 29 28 30 32 35 38 39 40 40 39 38 38 37 36 36 36 36 37
37 38 39 41 42 44 46 46 45 43 42 39 37 35 35 36 34 30 29 28 28 29 31 34 37 39 37 35 35 34 32 31 30 29 29 29 31 32
38 39 40 42 44 46 47 47 44 42 39 38 36 35 35 34 31 29 28 28 28 29 32 34 38 37 34 32 32 30 29 28 28 29 28 28 30 32
39 40 42 44 46 47 47 46 43 41 37 36 35 34 34 32 31 29 28 28 27 28 31 34 37 35 31 31 29 27 26 25 25 25 26 28 30 33
40 42 45 46 47 48 47 45 42 38 36 35 34 34 32 32 30 29 28 27 26 27 30 32 32 32 31 31 28 24 22 21 20 20 20 22 25 29
44 45 47 48 49 48 46 44 40 37 35 35 33 33 31 31 29 28 28 27 26 28 29 30 31 28 27 25 21 19 17 17 19 20 20 20 22 26
48 49 49 49 48 47 45 42 38 35 34 34 33 31 31 29 29 28 27 27 26 26 28 29 30 27 24 20 17 15 15 18 21 21 19 18 19 22
51 52 51 50 47 44 43 40 35 34 33 33 32 31 30 29 28 27 26 26 26 25 27 29 29 26 21 18 16 17 18 19 21 19 19 18 19 22
53 53 50 48 43 40 40 35 33 32 32 32 31 29 28 28 27 27 25 26 25 25 25 28 26 26 19 15 15 17 22 22 21 17 13 14 17 22
57 55 50 42 39 37 36 32 31 29 31 31 30 28 28 27 27 26 25 26 25 25 26 28 26 26 22 12 13 16 20 20 19 14 12 14 15 19
57 55 47 36 37 34 33 30 28 27 30 31 29 28 26 26 27 27 25 25 24 24 26 28 27 23 23 16 12 13 16 16 16 13 13 12 17 19
53 49 45 33 35 34 33 29 25 27 30 31 30 29 26 27 28 26 25 24 23 24 25 27 27 24 21 19 15 12 12 13 16 11 11 11 14 17
48 42 41 35 40 34 31 29 24 28 31 32 32 29 27 26 27 25 23 22 21 23 25 26 27 24 20 19 15 14 11 10 12 13 11 13 15 18
41 37 34 34 37 34 26 25 26 25 28 29 29 29 29 26 25 24 22 21 20 21 24 25 26 24 20 19 18 17 16 16 14 9 12 14 16 21
38 30 26 30 32 25 19 23 25 24 26 26 26 26 27 26 24 23 20 20 19 20 21 22 23 23 21 18 14 16 15 15 13 13 13 14 16 16
24 22 24 25 20 19 20 22 22 22 23 24 24 24 24 24 22 21 19 18 18 19 20 21 19 18 19 16 9 12 13 12 11 13 11 11 13 10
21 19 18 15 19 23 26 23 24 23 23 23 22 22 22 23 19 19 18 17 17 18 19 19 17 17 15 10 8 8 9 8 9 10 12 13 13 13
21 24 25 24 25 25 24 25 25 23 23 24 23 21 21 19 17 17 17 15 16 16 17 17 15 14 12 8 6 9 10 9 11 12 12 13 12 11
26 25 25 23 20 19 20 20 20 20 21 23 21 19 20 18 15 16 16 15 14 14 14 14 13 12 10 7 6 7 10 11 11 11 13 12 8 7
27 22 21 22 20 21 22 18 18 19 21 19 18 17 18 17 14 15 14 14 13 12 13 12 11 11 9 8 6 6 7 8 8 9 10 7 4 4
33 31 28 23 22 22 21 19 21 16 20 21 20 16 15 14 13 13 13 13 13 12 11 11 9 9 8 8 8 8 4 4 5 7 7 5 4 3

GFSNE_700_spd_072.txt.gz
Wind_Speed
41 41 37 32 33 34 36 37 39 41 42 38 37 40 48 44 42 40 37 39 38 38 36 35 33 32 33 33 34 36 39 42 43 44 44 45 45 45
41 39 34 34 35 37 36 38 40 42 46 41 40 33 43 41 38 39 37 37 36 31 30 30 30 30 31 32 35 38 41 44 45 45 45 45 45 45
38 35 34 36 37 36 38 41 43 44 45 46 40 33 41 41 38 38 37 35 31 30 29 28 30 30 31 33 37 40 40 40 39 39 40 40 41 41
34 34 35 35 37 39 41 43 45 45 40 47 44 35 35 40 39 38 36 33 30 30 29 29 29 29 32 35 37 37 34 33 32 32 32 32 33 35
33 34 35 37 39 41 43 45 45 42 39 40 44 39 39 38 39 38 34 33 30 29 28 28 28 29 32 34 34 32 29 29 28 28 29 29 29 29
33 34 37 39 41 43 45 47 47 47 46 45 42 40 37 32 33 32 30 28 29 28 28 28 28 29 30 33 31 29 27 26 25 25 25 26 27 29
35 38 41 43 44 45 47 48 46 48 47 43 40 37 31 26 26 25 30 30 28 28 27 27 28 29 29 30 30 28 22 21 20 20 20 21 22 24
39 42 45 48 50 50 50 48 46 46 42 33 32 33 30 28 28 29 29 30 28 27 27 25 27 27 28 28 27 23 20 16 14 15 18 20 23 25
43 47 49 51 53 54 52 50 47 42 39 34 34 34 34 34 35 34 31 30 28 26 26 26 26 26 27 26 25 21 18 16 15 16 18 20 21 22
48 50 53 54 53 49 47 44 42 39 36 33 32 32 33 32 33 33 31 29 28 26 25 26 24 24 25 24 24 22 18 17 17 20 20 18 18 19
51 53 55 55 51 46 43 40 38 35 34 31 31 32 31 30 30 30 30 28 26 25 24 25 24 24 25 22 22 22 20 18 18 20 19 18 17 17
55 55 54 53 49 38 41 36 34 30 30 31 30 28 28 29 27 27 27 27 25 24 23 25 24 24 25 23 17 21 21 19 20 20 19 17 16 16
55 55 54 50 48 40 38 37 32 28 29 28 27 28 29 28 28 29 26 26 24 23 23 24 23 24 24 26 21 19 24 21 20 19 20 18 17 17
53 53 51 47 43 39 32 35 38 32 27 25 27 28 30 30 31 29 27 25 24 23 22 23 23 24 25 24 22 20 22 21 17 17 17 17 18 16
53 51 46 41 37 34 31 33 33 28 23 23 27 30 32 30 31 30 28 25 24 23 22 23 23 23 24 24 22 19 19 19 15 14 17 18 18 17
49 44 39 36 30 26 28 25 26 22 19 20 24 26 27 26 28 29 29 25 24 21 21 21 22 23 23 23 22 20 16 20 19 18 16 16 19 17
45 38 31 25 23 20 21 20 19 19 19 19 22 23 23 24 25 26 26 23 22 20 19 20 21 22 22 22 21 19 13 16 17 17 14 13 12 14
39 32 26 23 21 18 17 19 19 21 22 22 21 20 20 22 23 23 23 21 20 19 18 18 19 20 20 19 17 12 11 13 14 13 13 14 13 15
36 31 27 26 23 22 19 20 24 24 22 23 24 22 21 21 22 23 21 19 18 17 17 17 17 18 17 15 13 10 11 12 11 10 12 14 16 17
34 30 29 28 27 26 25 24 21 22 22 22 23 25 23 22 21 21 18 18 17 16 15 15 15 15 14 13 10 10 8 10 11 12 14 16 17 15
32 30 29 30 31 29 25 21 20 20 21 20 21 21 21 20 20 20 17 17 16 15 14 14 14 13 13 11 8 6 10 10 12 14 15 16 13 7
30 28 28 29 31 28 25 23 22 22 18 19 19 21 20 19 19 19 17 16 15 14 13 13 13 12 11 10 9 7 7 9 10 10 12 12 8 6
29 28 27 26 26 32 33 27 24 22 21 21 15 21 20 19 17 16 16 15 14 13 12 12 11 11 10 9 8 8 9 7 8 9 10 10 8 7

GFSNE_700_spd_075.txt.gz
Wind_Speed
33 35 38 40 37 35 36 37 39 42 42 39 38 34 32 37 45 50 50 46 46 41 40 39 38 36 33 31 30 30 30 32 34 36 38 39 40 42
35 39 39 37 36 36 38 39 40 42 46 41 41 39 37 35 38 47 48 46 43 41 37 35 32 33 32 30 29 30 32 34 37 40 42 43 43 43
38 38 39 36 36 36 37 39 41 41 44 48 42 40 44 43 37 47 47 45 41 41 37 35 31 31 30 30 30 31 33 36 39 40 41 41 40 40
36 35 36 36 37 36 38 41 44 43 42 47 49 47 39 43 41 42 48 44 42 36 35 32 31 30 29 30 30 31 33 37 38 36 35 35 35 35
33 34 34 34 36 37 40 43 44 44 46 45 48 43 44 46 39 44 40 39 33 33 31 29 28 29 29 29 30 30 33 36 34 32 32 31 31 31
33 33 34 35 37 39 42 44 46 47 47 45 46 47 49 46 36 32 34 31 32 27 37 30 27 30 29 29 29 29 30 31 31 28 28 27 27 28
34 34 36 39 42 43 44 46 47 48 49 50 48 48 42 33 32 30 31 36 30 39 36 26 26 28 28 29 30 30 30 29 25 23 21 20 21 23
35 37 39 43 46 49 52 53 53 49 48 43 43 40 38 34 36 37 38 40 40 33 31 27 27 28 27 27 28 26 28 27 24 17 16 16 19 22
37 40 42 44 46 49 50 51 49 47 46 44 41 37 34 34 36 40 38 34 33 31 30 31 28 29 27 26 27 26 26 25 21 19 18 17 19 21
41 42 44 46 48 50 51 52 43 42 43 45 42 36 33 32 30 31 33 36 36 32 30 30 26 27 26 26 24 25 25 25 21 20 19 18 19 20
41 42 45 48 49 50 51 51 51 45 42 43 40 34 33 32 30 31 33 34 33 30 26 23 26 27 25 24 23 23 24 25 22 21 19 18 19 19
43 44 47 49 50 50 50 49 48 45 34 37 35 34 30 28 27 28 29 28 29 29 24 23 25 25 26 23 24 22 23 27 24 21 20 20 20 20
44 46 48 50 51 51 48 46 44 40 36 38 34 29 27 29 28 27 26 28 27 26 24 25 26 25 25 25 24 24 24 25 22 20 19 19 20 19
45 46 48 49 49 47 44 40 36 33 31 31 32 32 29 29 27 30 35 31 30 27 23 24 25 24 24 25 25 23 23 24 22 19 18 17 19 18
46 47 48 47 45 42 36 32 29 25 29 31 32 28 26 25 27 34 31 28 29 29 25 25 24 23 24 25 24 24 23 22 20 17 18 15 18 20
46 46 46 43 38 30 28 27 24 23 24 24 21 20 21 23 25 25 26 27 29 29 26 23 22 22 22 23 23 23 22 22 16 17 17 18 17 18
46 46 45 41 37 31 26 24 22 20 19 19 19 18 20 20 21 23 25 25 27 26 25 23 22 20 20 20 21 21 20 15 9 7 18 18 14 14
45 45 43 39 36 32 29 26 20 21 22 24 24 24 24 21 22 21 23 23 24 24 22 21 19 19 19 18 19 18 15 13 11 12 13 14 13 13
44 44 42 38 35 32 29 29 28 25 15 25 24 24 23 23 22 22 23 23 24 22 20 19 18 18 18 16 14 15 13 13 12 11 12 12 13 14
43 41 40 37 33 31 31 32 31 29 29 27 23 21 23 25 25 22 23 22 23 20 19 18 17 16 15 15 13 11 10 11 11 12 13 14 15 16
41 39 37 34 32 30 30 31 29 28 27 25 26 24 23 21 21 21 21 22 21 20 19 18 17 14 14 14 13 10 7 12 11 11 13 14 14 11
39 37 34 31 29 29 28 28 29 28 27 27 25 22 20 21 22 20 20 20 21 18 18 17 16 13 13 13 12 10 7 6 12 10 10 12 12 10
38 35 33 30 28 28 27 26 25 26 31 27 22 25 22 22 23 21 19 18 18 18 17 16 14 13 12 12 10 9 9 11 10 9 9 11 10 9

GFSNE_700_spd_081.txt.gz
Wind_Speed
37 37 43 36 35 33 33 34 37 40 39 32 33 32 32 33 35 38 41 44 47 49 50 49 50 49 55 51 52 54 46 40 34 32 32 30 28 28
41 40 39 36 32 31 33 32 33 37 41 35 34 34 36 39 40 43 44 46 48 49 49 48 50 51 56 48 46 39 34 33 33 32 31 30 29 29
26 36 34 31 33 33 32 31 32 33 37 38 37 36 40 43 45 46 47 48 45 48 50 50 52 53 54 44 39 38 36 32 31 31 30 30 29 30
29 30 30 32 33 32 31 32 33 31 36 41 41 40 42 45 48 48 49 50 47 49 53 55 48 40 38 37 39 41 42 33 31 31 29 29 30 31
31 30 31 32 31 30 31 32 33 34 37 41 43 44 45 47 49 50 50 49 48 49 51 48 42 37 38 37 40 43 46 37 31 30 29 29 30 32
29 31 30 30 30 31 32 33 35 37 38 40 43 45 46 47 49 49 50 46 46 45 43 41 37 34 38 41 43 44 39 30 28 27 27 28 28 30
31 31 30 30 30 32 35 37 39 40 41 42 46 48 49 50 51 48 46 45 45 37 38 36 30 36 38 40 38 36 32 32 28 27 27 27 28 28
30 30 29 30 31 34 37 39 41 41 42 45 48 51 51 52 52 48 44 45 47 39 35 36 38 37 36 37 37 37 35 33 28 26 26 27 27 26
30 30 30 32 34 37 39 40 41 41 43 47 49 50 52 51 52 49 42 51 43 36 34 34 34 35 34 35 35 33 31 27 26 25 25 26 26 25
29 31 34 35 37 40 42 43 43 42 43 45 48 50 51 50 49 47 43 42 42 35 33 33 31 31 31 31 30 28 27 25 24 24 24 26 24 24
32 34 36 38 40 41 43 45 45 44 44 46 47 48 47 47 44 41 34 35 35 32 28 28 27 29 29 28 26 25 23 21 21 22 24 24 23 23
34 35 36 39 41 43 44 46 47 46 47 46 45 45 44 41 38 37 33 30 32 29 26 27 26 30 30 26 22 21 22 23 23 23 24 24 23 23
36 36 38 40 42 43 44 46 47 48 47 47 45 43 41 37 34 27 26 31 32 32 26 27 29 29 28 28 23 19 21 22 22 23 24 23 22 22
38 39 41 42 43 43 44 45 46 46 46 45 43 41 38 33 30 27 28 27 28 26 24 26 31 24 26 27 24 18 19 20 22 23 23 22 22 21
40 41 43 44 44 43 44 44 45 45 43 42 41 38 34 29 27 28 27 23 23 24 25 25 25 26 27 25 23 18 19 18 21 22 22 22 19 17
41 42 43 44 45 44 44 44 44 44 43 41 39 35 29 28 23 23 23 23 23 21 21 23 24 26 25 23 24 18 18 19 18 19 19 14 12 15
44 45 45 45 46 45 43 43 42 42 40 38 36 33 30 27 26 25 24 23 22 20 20 22 22 23 23 24 20 17 16 17 16 15 13 12 11 13
45 46 47 47 47 46 45 44 43 41 39 36 34 32 31 32 27 20 24 25 25 24 24 21 22 22 23 21 17 16 14 14 12 10 11 14 14 13
47 47 47 47 46 46 45 44 42 40 37 35 33 31 30 33 31 20 24 24 23 22 21 21 21 22 23 20 11 16 14 12 10 8 9 9 9 11
46 46 46 46 46 45 43 41 39 36 34 32 31 29 29 29 40 34 29 19 21 20 18 19 20 21 21 16 13 10 14 14 10 7 7 8 10 11
47 46 45 45 44 42 40 38 36 33 32 30 29 27 26 26 29 26 23 17 22 23 21 18 18 21 19 15 12 10 14 14 12 11 8 7 8 10
47 46 45 44 42 40 37 35 33 31 29 28 28 26 24 22 23 22 24 26 25 23 19 18 20 19 17 14 11 11 12 13 13 10 7 7 6 6
46 45 42 40 39 36 34 32 30 29 28 27 26 25 23 21 22 21 22 23 20 18 17 19 18 16 15 12 11 10 11 12 12 15 10 8 7 7

GFSNE_700_spd_084.txt.gz
Wind_Speed
42 32 34 39 40 37 43 36 39 40 39 34 34 32 34 36 37 39 41 41 41 44 46 48 49 51 51 51 51 55 52 47 38 37 36 33 33 34
34 35 24 25 34 38 38 37 38 40 43 37 35 35 35 37 38 39 40 41 43 46 48 48 48 44 46 44 50 50 39 36 35 37 36 33 32 32
29 26 27 29 31 36 36 37 38 39 41 39 39 37 38 38 38 40 42 45 46 48 50 48 45 49 49 56 58 46 39 36 36 38 37 32 32 32
30 31 37 32 32 35 35 38 38 37 39 41 39 39 40 39 39 41 44 46 49 50 50 49 49 48 46 44 41 40 37 37 38 39 39 33 31 31
32 39 35 33 33 35 37 38 38 37 38 40 42 42 42 41 43 44 46 48 50 49 50 48 45 45 43 40 39 37 35 35 39 40 38 32 30 29
39 37 34 33 35 36 37 37 37 38 38 40 43 44 44 43 45 46 49 50 53 53 51 47 44 42 43 36 35 34 34 35 35 37 35 30 30 29
33 33 34 34 36 37 37 37 37 39 40 43 45 45 45 46 47 49 51 52 53 53 48 43 36 39 40 35 40 35 36 38 37 35 34 33 30 29
33 33 34 37 37 36 38 39 39 40 43 45 46 47 47 49 49 51 53 54 55 52 48 45 45 37 36 32 32 36 37 36 36 34 33 30 28 28
33 34 35 37 37 37 38 39 40 42 44 47 48 49 51 50 51 52 53 54 53 50 46 42 35 35 33 30 31 33 33 33 33 30 28 27 27 27
36 36 36 36 37 39 39 40 41 42 43 46 48 49 50 50 51 52 52 52 50 47 36 33 30 31 29 28 29 29 31 31 30 28 28 26 25 26
39 38 36 37 39 40 41 43 44 44 45 46 48 48 47 47 49 50 49 48 48 42 32 30 28 28 26 26 26 28 29 28 28 28 28 25 25 26
36 35 38 38 38 41 43 44 46 47 48 48 47 47 47 46 46 47 45 44 42 38 29 24 25 25 25 24 27 28 27 27 28 29 27 25 25 26
34 36 37 39 40 42 43 45 47 49 50 50 49 47 46 46 45 45 42 39 35 31 23 28 26 27 27 28 27 25 26 26 29 27 25 25 26 26
39 37 38 39 42 43 45 46 47 48 50 49 49 48 47 46 44 42 39 36 30 29 27 27 28 31 27 28 25 25 24 24 26 24 24 25 26 26
39 39 39 40 42 44 45 46 47 48 49 49 48 47 46 45 43 39 37 32 30 27 24 24 27 30 27 25 25 26 24 20 21 22 23 23 24 23
40 38 40 42 43 45 46 47 48 49 49 48 47 46 44 43 40 37 34 30 29 24 27 25 23 24 24 22 26 26 21 22 19 21 22 20 19 18
40 41 42 43 44 46 47 49 49 48 47 47 46 44 43 41 38 36 33 31 29 28 25 23 21 21 22 23 25 22 21 20 19 19 20 18 16 14
41 42 44 45 46 47 49 49 49 47 47 46 44 43 41 40 37 33 33 30 29 29 26 23 23 23 24 23 22 21 20 18 16 17 17 15 13 18
44 45 47 47 48 48 49 49 49 48 46 45 43 41 40 38 33 30 30 33 25 18 21 24 24 24 25 21 18 21 17 16 15 13 14 12 10 15
46 46 47 47 48 49 49 49 48 47 45 43 41 39 37 34 30 28 27 31 38 24 25 23 26 23 21 18 19 16 17 16 14 11 11 10 9 12
47 47 48 49 49 48 48 47 45 43 41 39 37 35 33 30 28 27 25 24 22 24 26 22 17 17 19 19 18 14 16 17 14 12 13 11 9 10
49 49 49 48 47 46 45 43 41 39 37 35 33 31 30 28 27 25 23 22 27 23 18 19 18 18 18 18 16 15 16 15 14 12 11 9 8 8
50 48 47 46 45 43 42 40 38 35 33 32 30 28 27 26 25 24 21 21 21 23 23 22 19 18 18 17 15 15 15 13 13 10 14 12 10 10